              Height (m), 1500.0000, 1650.0000, 1800.0000, 1950.0000, 2100.0000, 2250.0000, 2400.0000, 2550.0000, 2700.0000, 2850.0000, 3000.0000, 3150.0000, 3300.0000, 3450.0000, 3600.0000, 3750.0000, 3900.0000, 4050.0000, 4200.0000, 4350.0000, 4500.0000, 4650.0000, 4800.0000, 4950.0000, 5100.0000, 5250.0000, 5400.0000, 5550.0000, 5700.0000, 5850.0000, 6000.0000, 6150.0000, 6300.0000, 6450.0000, 6600.0000, 6750.0000, 6900.0000, 7050.0000, 7200.0000, 7350.0000, 7500.0000, 7650.0000, 7800.0000, 7950.0000, 8100.0000, 8250.0000, 8400.0000, 8550.0000, 8700.0000, 8850.0000, 9000.0000, 9150.0000, 9300.0000, 9450.0000, 9600.0000, 9750.0000, 9900.0000,10050.0000,10200.0000,10350.0000,10500.0000,10650.0000,10800.0000,10950.0000,11100.0000,
 10-AUG-2000 00:00:24.00,  999.0000,   -0.0819,    0.4711,    0.8685,    0.6681,    0.4868,    0.3669,    0.4257,  999.0000,  999.0000,  999.0000,  999.0000,    3.1370,    4.0577,    5.6362,    6.8343,  999.0000,  999.0000,  999.0000,  999.0000,    9.9357,   10.3070,  999.0000,  999.0000,  999.0000,   12.4618,   12.1436,   11.8438,   11.6892,   11.6352,   11.3465,   10.9192,    9.8745,    8.5358,    7.6851,    7.0491,    6.6123,    6.2492,    6.5369,    7.0281,    6.7173,    6.1980,    4.6791,    2.9487,    1.6170,    0.3518,    0.1536,    0.0886,    0.2439,    0.4183,    0.6537,    0.8921,    0.9227,    0.9431,    0.5438,    0.1326,   -0.5172,   -1.2028,   -2.3042,   -3.3073,   -3.5253,   -3.5999,  999.0000,  999.0000,  999.0000,
 10-AUG-2000 00:05:28.00,  999.0000,  999.0000,  999.0000,  999.0000,  999.0000,  999.0000,  999.0000,  999.0000,  999.0000,  999.0000,  999.0000,  999.0000,  999.0000,  999.0000,  999.0000,  999.0000,  999.0000,  999.0000,  999.0000,  999.0000,  999.0000,  999.0000,  999.0000,  999.0000,  999.0000,  999.0000,  999.0000,  999.0000,  999.0000,  999.0000,  999.0000,  999.0000,  999.0000,  999.0000,  999.0000,  999.0000,  999.0000,  999.0000,  999.0000,  999.0000,  999.0000,  999.0000,  999.0000,  999.0000,  999.0000,  999.0000,  999.0000,  999.0000,  999.0000,  999.0000,  999.0000,  999.0000,  999.0000,  999.0000,  999.0000,  999.0000,  999.0000,  999.0000,  999.0000,  999.0000,  999.0000,  999.0000,  999.0000,  999.0000,  999.0000,
 10-AUG-2000 00:10:32.00,  999.0000,  999.0000,  999.0000,  999.0000,  999.0000,  999.0000,  999.0000,  999.0000,  999.0000,  999.0000,  999.0000,  999.0000,  999.0000,  999.0000,  999.0000,  999.0000,  999.0000,  999.0000,  999.0000,  999.0000,  999.0000,  999.0000,  999.0000,  999.0000,  999.0000,  999.0000,  999.0000,  999.0000,  999.0000,  999.0000,  999.0000,  999.0000,  999.0000,  999.0000,  999.0000,  999.0000,  999.0000,  999.0000,  999.0000,  999.0000,  999.0000,  999.0000,  999.0000,  999.0000,  999.0000,  999.0000,  999.0000,  999.0000,  999.0000,  999.0000,  999.0000,  999.0000,  999.0000,  999.0000,  999.0000,  999.0000,  999.0000,  999.0000,  999.0000,  999.0000,  999.0000,  999.0000,  999.0000,  999.0000,  999.0000,
 10-AUG-2000 00:15:36.00,  999.0000,  999.0000,  999.0000,  999.0000,  999.0000,  999.0000,  999.0000,  999.0000,  999.0000,  999.0000,  999.0000,  999.0000,  999.0000,  999.0000,  999.0000,  999.0000,  999.0000,  999.0000,  999.0000,  999.0000,  999.0000,  999.0000,  999.0000,  999.0000,  999.0000,  999.0000,  999.0000,  999.0000,  999.0000,  999.0000,  999.0000,  999.0000,  999.0000,  999.0000,  999.0000,  999.0000,  999.0000,  999.0000,  999.0000,  999.0000,  999.0000,  999.0000,  999.0000,  999.0000,  999.0000,  999.0000,  999.0000,  999.0000,  999.0000,  999.0000,  999.0000,  999.0000,  999.0000,  999.0000,  999.0000,  999.0000,  999.0000,  999.0000,  999.0000,  999.0000,  999.0000,  999.0000,  999.0000,  999.0000,  999.0000,
 10-AUG-2000 00:20:40.00,  999.0000,  999.0000,  999.0000,  999.0000,  999.0000,  999.0000,  999.0000,  999.0000,  999.0000,  999.0000,  999.0000,  999.0000,  999.0000,  999.0000,  999.0000,  999.0000,  999.0000,  999.0000,  999.0000,  999.0000,  999.0000,  999.0000,  999.0000,  999.0000,  999.0000,  999.0000,  999.0000,  999.0000,  999.0000,  999.0000,  999.0000,  999.0000,  999.0000,  999.0000,  999.0000,  999.0000,  999.0000,  999.0000,  999.0000,  999.0000,  999.0000,  999.0000,  999.0000,  999.0000,  999.0000,  999.0000,  999.0000,  999.0000,  999.0000,  999.0000,  999.0000,  999.0000,  999.0000,  999.0000,  999.0000,  999.0000,  999.0000,  999.0000,  999.0000,  999.0000,  999.0000,  999.0000,  999.0000,  999.0000,  999.0000,
 10-AUG-2000 00:23:11.00,  999.0000,  999.0000,  999.0000,  999.0000,    0.4029,    0.6850,  999.0000,  999.0000,    2.3856,    2.9161,    3.3623,    4.0246,  999.0000,  999.0000,    7.3074,    8.2158,  999.0000,  999.0000,   10.0942,   10.6993,  999.0000,  999.0000,  999.0000,  999.0000,   13.6007,   13.5121,  999.0000,   12.6853,   12.2649,   11.5329,   11.1659,   11.9558,  999.0000,   10.6656,    9.2042,    7.1870,    6.5192,    6.3502,    6.2067,    6.0711,    5.0872,    3.8828,    2.9496,    2.0738,    1.3542,    0.6607,    0.2862,   -0.0485,    0.4398,    0.9990,    0.9990,    0.9710,    0.8871,    0.7959,    0.3149,   -0.1901,   -1.1743,   -2.1345,   -2.8173,   -3.4434,   -3.6174,   -3.6763,   -3.0461,   -2.4526,   -2.0324,
 10-AUG-2000 00:28:15.00,   -0.0420,    0.2981,   -0.1876,   -0.4462,    0.1683,    0.7485,  999.0000,  999.0000,  999.0000,  999.0000,  999.0000,  999.0000,    4.0433,    4.6902,  999.0000,  999.0000,    7.5495,    8.4283,    9.2080,    9.9076,   10.5132,   11.2276,   12.0542,   12.3709,   12.2446,   12.6376,   12.5545,   12.1140,   11.6784,   11.2460,   11.0719,   11.0462,   10.8379,   10.6506,    9.5709,    8.0984,    7.3554,    6.7136,    6.3774,    6.2322,    5.1448,    3.8479,    2.6843,    1.5488,    0.8877,    0.3056,    0.2057,    0.1662,    0.4220,    0.7033,    0.9402,    1.1748,    1.2328,    1.2761,    0.5874,   -0.1234,   -1.2761,   -2.4417,   -3.7563,   -4.9143,   -4.8043,   -4.6380,   -3.6524,   -2.8979,   -1.9081,
 10-AUG-2000 00:33:19.00,  999.0000,  999.0000,  999.0000,  999.0000,    0.8293,    0.8293,    0.8293,    1.1029,    2.1168,    2.8375,    2.8799,    3.3180,  999.0000,  999.0000,    7.0046,    7.9919,  999.0000,  999.0000,  999.0000,  999.0000,  999.0000,  999.0000,   12.3365,   12.7292,   12.4737,   12.7572,   12.8327,   12.7519,   12.3283,   11.6791,   11.5582,   11.7413,   11.2546,  999.0000,    8.0118,    8.5579,    7.9997,    6.6740,    6.8393,    7.0306,    5.9029,    4.5500,    3.6296,    2.8007,    1.4552,    0.0237,   -0.2691,   -0.4196,   -0.1480,    0.1600,    0.4636,    0.7670,    0.9324,    1.0839,    0.5114,   -0.0652,   -0.7209,   -1.4702,   -3.3044,   -4.9225,  999.0000,  999.0000,  999.0000,   -3.8252,   -2.8120,
 10-AUG-2000 00:38:25.00,   -0.4869,   -0.0011,   -0.0406,   -0.0103,  999.0000,  999.0000,  999.0000,  999.0000,    1.4843,    1.9091,  999.0000,  999.0000,    4.0574,    4.8393,  999.0000,  999.0000,    7.5274,    8.3566,  999.0000,  999.0000,  999.0000,  999.0000,  999.0000,  999.0000,   12.3072,   12.7795,   13.1549,   13.4575,   13.1540,   12.4516,   12.1055,   12.0741,   11.7496,   11.2483,   10.2604,    9.0193,    7.9514,    6.9475,    6.6806,    6.6439,    5.6697,    4.4516,    3.8948,    3.4779,    2.3393,    1.0804,    0.7518,    0.5395,    0.8493,    1.2040,    1.5166,    1.8271,    1.8492,    1.8553,    1.1603,    0.4469,   -0.6351,   -1.7324,   -3.0063,   -4.1693,   -4.4468,   -4.5217,   -3.3828,   -2.3181,  999.0000,
 10-AUG-2000 00:43:29.00,    0.5917,    1.0044,    0.7542,    0.5892,  999.0000,  999.0000,    1.0764,    1.3806,  999.0000,  999.0000,    3.4433,    4.2506,  999.0000,  999.0000,    7.3908,    8.1695,    8.5411,    8.9685,    9.4703,   10.0370,  999.0000,  999.0000,  999.0000,  999.0000,   12.3945,   12.9670,   13.3372,   13.5555,   13.1036,   12.2104,   11.8038,  999.0000,   11.6918,   10.7736,    9.8087,    8.6502,    7.5575,    6.4891,    6.2383,    6.2432,    5.4942,    4.5492,    3.8338,    3.1670,    2.0074,    0.7656,    0.4196,    0.1855,    0.2742,    0.3907,    0.6233,    0.8616,    0.8759,    0.8742,    0.3175,   -0.4171,   -1.4741,   -2.7299,   -3.4555,   -4.0511,   -3.6087,   -3.0629,   -1.8978,   -0.9921,   -1.3111,
 10-AUG-2000 00:48:33.00,  999.0000,  999.0000,  999.0000,    0.6747,    1.2233,    1.6625,    1.7517,    2.0783,    3.0468,    3.8678,  999.0000,  999.0000,    5.3073,    6.0575,    7.2776,    8.2230,    8.7511,    9.3394,   10.0080,   10.6846,   11.3708,   11.9472,  999.0000,  999.0000,   11.9379,   12.4537,   12.7593,   13.2270,   12.6151,   11.2460,   11.4046,   12.3994,   11.8826,   10.6097,    9.3693,    8.1429,    7.1798,    6.3140,    5.9649,    5.7773,    5.0858,    4.2634,    3.4635,    2.6684,    1.5699,    0.4207,   -0.0162,   -0.3641,   -0.3476,   -0.2997,    0.0298,    0.3735,    0.5331,    0.6721,  999.0000,  999.0000,  999.0000,   -3.2214,   -4.0932,   -4.8850,   -5.0376,   -4.9467,   -3.3960,   -2.1779,   -2.5298,
 10-AUG-2000 00:53:37.00,    1.4961,    1.8547,    1.3295,    0.8928,    0.7963,    0.8077,    1.1647,    1.6216,    2.3486,    3.1203,    3.9951,    4.7773,    5.3741,    6.0138,    6.7277,    7.3190,    7.7243,    8.4764,    9.6906,   10.6505,  999.0000,  999.0000,   12.6364,   12.8809,  999.0000,   13.6646,   13.2593,   12.1414,   11.6645,   11.8396,   12.0287,   12.5900,   12.1079,   11.1039,   10.0142,    8.8874,    7.8104,    6.7518,    6.4186,    6.3122,    5.7584,    5.0882,    4.2750,    3.4315,    2.4046,    1.3471,    0.7235,    0.1543,    0.2665,    0.4375,    0.7126,    0.9930,    1.3911,    1.7739,    1.0933,    0.3900,   -0.6407,   -1.7666,   -3.3570,   -4.8154,   -5.2190,   -5.3504,   -3.8507,   -2.5118,   -2.6694,
 10-AUG-2000 00:58:41.00,    1.0635,    1.0079,  999.0000,  999.0000,    0.8608,    0.9165,    1.3071,    1.7301,    2.2407,    2.6418,    2.7895,    3.2031,  999.0000,  999.0000,  999.0000,  999.0000,  999.0000,  999.0000,    9.8159,   10.6165,   11.2485,   12.0577,   13.0495,   13.6841,   12.3959,   13.2432,   13.3044,   12.9178,   12.7058,   12.6088,   12.9066,   13.4317,   12.6792,   11.2875,   10.4423,    9.8333,    8.6577,    7.2726,    6.6387,    6.2395,    5.8038,    5.3586,    4.6643,    3.9172,    2.7407,    1.5634,    0.9406,    0.3760,    0.0688,   -0.2138,    0.2647,    0.7812,    0.8969,    0.9975,    0.5622,    0.0727,  999.0000,  999.0000,  999.0000,  999.0000,  999.0000,  999.0000,  999.0000,   -2.4409,   -3.1046,
 10-AUG-2000 01:03:51.00,  999.0000,  999.0000,  999.0000,  999.0000,  999.0000,  999.0000,  999.0000,  999.0000,  999.0000,  999.0000,  999.0000,  999.0000,  999.0000,  999.0000,    7.3678,    7.8956,    8.4983,    9.1434,  999.0000,  999.0000,  999.0000,  999.0000,  999.0000,  999.0000,   14.0537,   12.9843,   12.7357,   12.4135,   12.5202,   12.9756,   13.1318,   13.1670,   12.5205,   11.5329,   10.7230,    9.9899,    9.0001,    7.9154,    7.2899,    6.8078,    6.5635,    6.3810,    5.4879,    4.4446,  999.0000,  999.0000,  999.0000,    0.1390,   -0.1725,   -0.4169,   -0.3023,   -0.1699,    0.3303,    0.8246,    0.5952,    0.3151,   -0.9782,   -2.2898,   -3.8131,   -5.1941,   -5.4385,   -5.4777,   -4.2873,   -3.3421,   -3.5551,
 10-AUG-2000 01:08:55.00,    1.2641,    1.0611,  999.0000,  999.0000,  999.0000,  999.0000,  999.0000,  999.0000,  999.0000,  999.0000,  999.0000,  999.0000,  999.0000,  999.0000,    6.5302,    6.6937,  999.0000,  999.0000,  999.0000,  999.0000,  999.0000,  999.0000,  999.0000,  999.0000,  999.0000,   11.9802,   12.3588,  999.0000,  999.0000,   13.4931,   13.4551,   13.1528,   12.4794,   11.5683,   10.6058,    9.7002,    8.6531,    7.5805,    6.9356,    6.4244,    6.0114,    5.6241,    4.9955,    4.3160,    3.3763,    2.3933,    1.2591,    0.1059,   -0.1722,   -0.3750,   -0.2625,   -0.1343,    0.4419,    1.0121,    0.7602,    0.4630,   -0.7369,   -1.9465,   -3.2663,   -4.4448,   -4.4935,   -4.4425,   -3.7946,   -3.3181,   -3.6508,
 10-AUG-2000 01:13:59.00,  999.0000,  999.0000,  999.0000,  999.0000,    1.6140,    1.7517,    1.8526,    2.0633,    2.5710,    3.0451,  999.0000,  999.0000,    4.2344,    4.9440,    6.1977,    7.2830,  999.0000,  999.0000,    9.7715,   10.5848,   11.3791,   11.8890,  999.0000,  999.0000,  999.0000,  999.0000,  999.0000,   12.2185,   12.6792,   13.2253,   13.2843,   13.0149,   12.3661,  999.0000,  999.0000,    9.7097,    8.3019,    6.7004,    6.0545,    5.7074,    5.4833,    5.2913,    4.9286,    4.5299,    3.6376,    2.6632,    1.5585,    0.4376,    0.0012,   -0.3762,   -0.3706,   -0.3459,    0.1039,    0.5522,    0.5597,    0.5831,   -0.5807,   -1.7916,   -2.5451,   -3.2154,   -3.2214,   -3.2601,   -3.4947,   -3.8471,   -4.7553,
 10-AUG-2000 01:19:03.00,  999.0000,  999.0000,  999.0000,  999.0000,    1.3030,    1.3700,    2.0444,    2.6339,  999.0000,  999.0000,    3.7135,    4.2017,    4.9463,    5.7224,  999.0000,  999.0000,  999.0000,  999.0000,  999.0000,  999.0000,  999.0000,  999.0000,   13.1982,   13.5844,   13.5668,   12.3332,   12.4698,   12.6379,   12.6804,  999.0000,  999.0000,   12.7154,   12.0141,   10.9733,   10.0118,    9.0847,    7.9971,    6.8504,    6.0317,    5.3155,    5.0521,    4.9065,    4.5313,    4.1076,    3.1884,    2.1866,    1.2422,    0.3050,    0.0931,   -0.0562,    0.2694,    0.6187,    0.8134,    0.9930,  999.0000,  999.0000,  999.0000,   -1.9368,   -2.7564,   -3.4460,   -3.0968,   -2.8743,   -3.4109,   -4.0659,   -5.2804,
 10-AUG-2000 01:24:08.00,    1.4184,    1.2055,    1.1338,    1.1095,    1.2675,    1.5914,    2.4457,    3.3099,    4.2009,    4.5237,    3.5318,    3.2781,  999.0000,  999.0000,    6.9427,    8.0028,    8.8177,    9.4775,  999.0000,  999.0000,  999.0000,  999.0000,  999.0000,  999.0000,  999.0000,  999.0000,   13.5564,   13.6522,  999.0000,   13.2654,   13.1989,   13.1088,   12.4145,   11.3997,   10.6509,   10.1196,    8.7267,    6.8899,    5.8190,    4.9476,    4.7398,    4.7047,    4.2683,    3.7470,    3.0032,    2.2224,    0.9827,   -0.3142,   -0.6099,   -0.8194,   -0.4570,   -0.0661,    0.2741,    0.6127,    0.8941,    1.1028,   -0.1428,   -1.4054,   -2.8652,   -4.1962,   -4.4974,   -4.7055,   -4.3563,   -4.3245,   -5.7914,
 10-AUG-2000 01:29:12.00,    1.3416,    1.2729,    1.3562,    1.3877,    1.2195,    1.2416,  999.0000,  999.0000,  999.0000,  999.0000,  999.0000,  999.0000,    5.6604,    6.3104,  999.0000,  999.0000,    8.3577,    9.3416,   10.7270,   11.6482,  999.0000,  999.0000,  999.0000,  999.0000,   13.5353,   13.5591,   13.3001,   12.5666,   12.6616,   14.0682,   12.9842,   12.6494,   12.2638,   11.7286,   10.5155,  999.0000,  999.0000,    6.4095,    5.6429,    5.0331,    4.5946,    4.2007,    4.0832,    4.0243,    3.1403,    2.1188,    1.1056,    0.0934,   -0.2801,   -0.5986,   -0.2202,    0.1930,    0.2145,    0.2281,    0.1344,    0.0100,   -0.7288,   -1.5186,   -2.8988,   -4.1448,   -4.3180,   -4.4081,   -4.0000,   -4.0380,   -6.1819,
 10-AUG-2000 01:34:16.00,  999.0000,    1.6689,    1.7450,    1.8039,    1.7965,    1.9786,  999.0000,  999.0000,    4.3420,    4.8373,    4.6559,    4.8292,    5.7114,    6.6785,    7.7932,    8.5357,    8.7127,    9.2491,   10.2644,   11.0331,   11.5129,   11.9125,  999.0000,  999.0000,   12.8626,   13.0915,  999.0000,   11.6805,   12.2165,   12.7569,   12.6358,   12.1341,   12.1310,   12.3773,   11.0970,    9.1572,    8.0535,    7.2589,    6.5576,    5.8853,    5.3403,    4.8283,    4.5806,    4.3889,    3.6400,    2.7983,    1.5245,    0.1968,   -0.0279,   -0.1574,    0.0561,    0.2867,    0.2629,    0.2320,    0.0140,   -0.2330,   -1.0573,   -1.8878,   -2.7897,   -3.6301,   -3.9802,   -4.2690,   -4.1898,   -4.5398,   -7.3200,
 10-AUG-2000 01:39:20.00,    1.3052,    1.3381,    1.4156,    1.5606,  999.0000,  999.0000,    2.7741,    3.2799,    4.0597,    4.6536,    4.8174,    5.2857,    6.3624,    7.4145,    8.4240,    9.2003,  999.0000,  999.0000,  999.0000,  999.0000,   11.3118,   11.6578,  999.0000,  999.0000,   12.0418,   11.9916,   12.0379,   12.4412,   12.5727,   12.7273,   12.5295,   12.1292,   11.8408,   11.6084,   10.8018,    9.6831,    8.2004,    6.7876,    5.7982,    4.9829,    4.3885,    3.8515,    3.5712,    3.4404,    2.5623,    1.6014,    0.3819,   -0.8712,   -1.0668,   -1.1712,   -0.7806,   -0.3653,   -0.1009,    0.1507,   -0.2366,   -0.6644,   -1.9011,   -3.0743,   -3.5126,   -3.9328,   -4.2077,   -4.3918,   -4.0316,   -3.8859,  999.0000,
 10-AUG-2000 01:44:24.00,  999.0000,  999.0000,  999.0000,    1.6158,    1.7577,    2.0240,    2.6882,    3.3295,    3.9088,    4.3107,    4.3019,    4.8146,    6.3697,    7.7148,    8.6950,    9.3011,    9.3392,    9.6293,   10.2555,   10.7051,   10.9479,   11.3096,  999.0000,  999.0000,  999.0000,  999.0000,   13.7308,   13.8290,   13.8230,   13.8170,   13.6148,   13.2998,   12.8495,   12.3315,   11.3238,    9.1981,  999.0000,    7.5171,    6.6001,    5.8046,    5.0094,    4.2144,    3.5304,  999.0000,  999.0000,    0.6759,   -0.2666,   -1.2091,   -1.1245,   -0.9513,   -0.3339,    0.3057,    0.4077,    0.4882,   -0.2302,   -0.9647,   -2.0209,   -3.0710,   -4.0502,   -4.8829,   -4.5454,   -4.2708,   -4.3731,   -4.5979,  999.0000,
 10-AUG-2000 01:49:29.00,    1.3115,    1.5234,  999.0000,  999.0000,    1.8241,    2.1687,    3.2952,    4.3012,    4.9814,    5.4684,    5.5079,    6.0035,    7.4108,    8.4317,  999.0000,  999.0000,  999.0000,  999.0000,   10.1774,   10.4871,   10.7504,   11.4221,   12.5149,   13.1201,  999.0000,  999.0000,   13.6072,   13.2986,   13.2385,   13.1783,   13.0534,   12.8911,   12.5955,   12.2331,   11.1395,    9.8945,    8.1369,    6.1195,    5.3209,    4.8562,    4.3785,    3.8975,    3.0569,    2.3232,    1.0055,   -0.3439,   -1.2844,   -2.1705,   -1.8985,   -1.5267,   -0.9957,   -0.4568,   -0.5471,   -0.6509,   -0.9625,   -1.3106,   -2.3867,   -3.4351,   -4.1626,   -4.7719,   -4.4374,   -4.2073,   -4.6032,   -5.0441,  999.0000,
 10-AUG-2000 01:54:33.00,    0.9826,    1.0291,    1.3158,    1.6846,  999.0000,  999.0000,  999.0000,  999.0000,    5.1054,    5.6193,    5.7393,    6.0876,    6.8922,    7.8202,    8.9628,    9.7565,  999.0000,  999.0000,   10.5487,   10.7168,   10.7723,   11.1351,  999.0000,  999.0000,   13.1737,   13.4780,  999.0000,   14.3956,   14.1925,   13.9893,   13.6681,   13.2790,   12.6855,   11.9896,   10.8192,  999.0000,    5.7303,    6.2696,    5.3818,    4.6952,    4.5609,    4.6013,  999.0000,  999.0000,  999.0000,    0.3610,   -0.5841,   -1.4999,   -1.2888,   -0.9807,   -0.8186,   -0.6638,   -0.5817,   -0.5089,   -0.9384,   -1.3988,   -2.4766,   -3.4819,   -3.6484,   -3.8653,   -4.4856,   -4.9731,   -4.6646,   -4.7157,   -6.5151,
 10-AUG-2000 01:59:37.00,    1.9533,    2.1746,  999.0000,  999.0000,    2.2843,    2.4606,  999.0000,  999.0000,    4.3302,    4.9565,    5.5900,    6.2486,  999.0000,  999.0000,  999.0000,  999.0000,  999.0000,  999.0000,   11.2127,   11.6404,   11.7384,   12.0914,  999.0000,  999.0000,   13.9391,   14.4476,   14.8704,   13.8817,   14.0267,   14.1716,   13.9334,   13.4747,   12.8675,   12.1860,   11.4379,   10.6610,    9.2211,  999.0000,  999.0000,    4.5534,    4.1245,    3.9651,    3.4956,    2.9605,    1.6788,    0.2728,   -0.6936,   -1.6050,   -1.5806,   -1.4755,   -0.7873,   -0.0700,   -0.1134,   -0.1759,   -0.6568,   -1.1687,   -2.2992,   -3.3632,   -3.6587,   -3.9752,   -4.4592,   -4.8836,   -4.9502,   -5.1882,  999.0000,
 10-AUG-2000 02:04:41.00,    1.9315,    2.0280,    2.2972,    2.5298,    2.6220,    2.7319,    2.8987,    3.2037,  999.0000,  999.0000,  999.0000,  999.0000,    6.5977,    7.3088,  999.0000,  999.0000,    9.6107,   10.2126,  999.0000,  999.0000,  999.0000,  999.0000,   12.1192,   12.6695,  999.0000,  999.0000,   14.7805,   14.5215,   14.0456,   13.5697,   13.2403,   12.9952,   12.6005,   12.1309,   11.5381,   10.8922,    9.0492,    6.7638,    5.5143,    4.5887,    4.1962,    3.9424,    3.3792,    2.7506,    1.2917,   -0.3056,   -1.0707,   -1.7317,   -2.0093,   -2.2537,   -1.5363,   -0.7708,   -0.5971,   -0.4452,   -1.0563,   -1.6797,   -2.5476,   -3.3599,   -3.5276,   -3.7158,   -4.0678,   -4.4822,   -5.2709,   -6.0844,  999.0000,
 10-AUG-2000 02:09:50.00,  999.0000,  999.0000,  999.0000,  999.0000,    2.1413,    2.3955,    2.6486,    3.0549,    3.8756,    4.5100,    4.7134,    5.1265,    5.9589,    6.7336,  999.0000,  999.0000,    8.7568,    9.2832,    9.6123,   10.2467,   11.2386,   12.0252,   12.6001,   12.9627,   13.1324,   13.6395,   14.4163,   14.1243,   14.1883,   14.3522,   14.1829,   13.7685,   13.0842,   12.2128,   11.7856,   11.5502,    9.8289,    7.4151,    6.1188,    4.9866,    4.4955,    4.1764,    3.4733,    2.6888,    1.2279,   -0.3457,   -1.1694,   -1.8994,   -2.2480,   -2.5639,   -1.7004,   -0.7780,   -0.6953,   -0.6331,   -1.0076,   -1.4077,   -2.3214,   -3.1892,   -3.5263,   -3.8545,   -4.1124,   -4.2930,   -4.0100,   -4.1488,   -6.2787,
 10-AUG-2000 02:14:54.00,    1.0915,    0.8204,    1.2315,    1.4732,    1.0636,    0.9589,    1.8293,    2.6227,    3.2079,    3.7670,    4.2659,    4.8969,    5.7923,    6.7442,    7.7946,    8.6022,    9.0411,    9.5021,  999.0000,  999.0000,  999.0000,  999.0000,   11.9550,   12.4154,   12.8484,   13.4993,   14.3244,   13.9995,   13.8745,  999.0000,  999.0000,   13.5501,   13.1061,   12.4224,   12.0329,   11.7598,   10.1879,  999.0000,  999.0000,    4.5251,    3.8736,    3.6993,    3.2698,    2.8444,    1.5586,    0.1366,   -0.7580,   -1.5868,   -1.7816,   -1.9217,   -1.5514,   -1.0862,   -1.2605,   -1.3409,   -1.4991,   -1.7020,   -2.7946,   -3.8433,   -4.3845,   -4.8885,   -5.0956,   -5.3630,   -5.9058,   -6.6395,   -7.8107,
 10-AUG-2000 02:19:58.00,    0.4313,    0.4137,    0.8862,    1.2295,    1.0759,    1.1294,  999.0000,  999.0000,    3.2777,    3.9490,    4.5166,    5.1804,    6.0362,    6.9003,  999.0000,  999.0000,    9.5357,   10.2361,  999.0000,  999.0000,   11.6251,   11.9578,  999.0000,  999.0000,  999.0000,  999.0000,  999.0000,  999.0000,   13.3454,   14.2861,   14.1988,   14.2032,   13.6988,   12.2914,   11.8014,   11.4321,    9.5514,    7.2535,    6.1585,    5.5265,  999.0000,  999.0000,  999.0000,    2.8043,    1.6245,    0.3653,   -0.4154,   -1.1363,   -1.3796,   -1.5817,  999.0000,  999.0000,  999.0000,   -0.8684,   -1.1817,   -1.5576,   -3.1818,   -4.7256,   -5.3378,   -5.8819,   -5.8820,   -6.0044,  999.0000,  999.0000,  999.0000,
 10-AUG-2000 02:25:02.00,    1.4908,    1.2513,  999.0000,  999.0000,    0.9331,    1.0532,  999.0000,  999.0000,    3.5833,    4.2879,    4.6712,    5.2825,  999.0000,  999.0000,    8.4841,    9.3031,  999.0000,  999.0000,  999.0000,  999.0000,   11.5121,   11.8691,  999.0000,  999.0000,  999.0000,  999.0000,  999.0000,   14.0717,   14.1360,   14.1863,   13.8986,  999.0000,  999.0000,   12.5358,   11.8242,   11.0015,    9.1240,    6.5630,    5.6273,  999.0000,  999.0000,    4.2703,    3.3979,    2.4350,    1.1187,   -0.2566,   -1.1259,   -1.9321,   -1.9608,   -1.9226,   -1.5780,   -1.2181,   -1.3129,   -1.4158,   -1.5701,   -1.7753,   -2.9947,   -4.1962,   -5.4269,   -6.4081,   -5.9756,   -5.7836,   -6.8546,   -7.8260,   -8.6131,
 10-AUG-2000 02:30:06.00,    1.8019,    1.7666,    1.7096,    1.6126,    1.3625,    1.2757,    1.7117,    2.3431,    3.5032,    4.5229,  999.0000,  999.0000,  999.0000,  999.0000,  999.0000,  999.0000,    9.3845,    9.9238,  999.0000,  999.0000,  999.0000,  999.0000,  999.0000,  999.0000,  999.0000,  999.0000,   12.9152,   13.1064,  999.0000,   14.3843,   13.9534,   13.1169,   12.6590,   12.5721,   12.2512,   12.0009,   10.6421,    5.8813,  999.0000,    5.7586,    5.1093,    4.6888,    4.0736,    3.4171,    2.0547,    0.5748,   -0.5977,   -1.5727,   -1.9205,   -1.9020,   -1.4291,   -0.9175,   -1.1880,   -1.4685,   -1.5920,   -1.7492,   -2.5787,   -3.3935,  999.0000,  999.0000,  999.0000,  999.0000,  999.0000,  999.0000,  999.0000,
 10-AUG-2000 02:35:10.00,    1.1339,    0.7193,    0.8480,    0.9254,    0.8055,    0.9294,  999.0000,  999.0000,    3.6417,    4.4412,    4.9986,    5.6317,  999.0000,  999.0000,  999.0000,  999.0000,    9.5548,   10.1153,   10.3771,   10.8445,  999.0000,  999.0000,   12.9686,   13.3248,   13.3614,   13.5903,  999.0000,  999.0000,   14.7379,   15.0514,   14.6610,   14.2796,   13.6709,   12.9483,   12.4636,   12.0817,   10.3020,    8.0451,    6.7445,    5.6109,    5.1858,    4.9230,    4.5619,    3.8992,    2.2808,    0.3884,  999.0000,  999.0000,  999.0000,   -1.3701,   -0.9110,   -0.4109,   -0.7520,   -1.1048,   -1.3501,   -1.6311,   -2.6266,   -3.6682,   -5.2435,   -6.6554,  999.0000,  999.0000,  999.0000,   -6.9770,   -8.1456,
 10-AUG-2000 02:40:15.00,    1.0876,    0.9532,  999.0000,  999.0000,  999.0000,  999.0000,  999.0000,  999.0000,    3.8436,    4.3425,    5.0403,    5.7537,    6.4983,    7.2408,    7.9796,    8.5813,    8.9748,    9.4607,  999.0000,  999.0000,  999.0000,  999.0000,  999.0000,  999.0000,  999.0000,  999.0000,   14.9405,   15.2200,   14.9780,   14.7359,   14.5253,   14.3327,   13.9566,   13.4887,   12.4810,   11.1658,    9.6133,  999.0000,  999.0000,    4.9039,    4.1524,    3.6205,  999.0000,  999.0000,  999.0000,   -1.0508,   -1.9683,   -2.6110,   -3.0105,   -3.3630,   -3.1438,   -2.8961,   -3.1669,   -3.4500,   -4.2736,   -4.8242,   -5.0336,   -4.8818,   -5.6266,   -6.3680,   -7.0827,   -7.6744,   -7.5295,   -7.5283,   -8.2062,
 10-AUG-2000 02:45:19.00,  999.0000,  999.0000,  999.0000,  999.0000,    1.0000,    1.1726,  999.0000,  999.0000,  999.0000,  999.0000,  999.0000,  999.0000,  999.0000,  999.0000,    8.2719,    8.8710,  999.0000,  999.0000,    9.8036,   10.1613,   10.5738,   10.8128,   10.8728,   11.2165,   11.8177,   12.3144,  999.0000,   15.2413,   15.1911,   15.1409,   14.8505,   14.4219,   14.1699,   14.0062,   12.9516,  999.0000,  999.0000,    8.2418,    6.8605,    5.6312,    4.9584,    4.2928,    3.7802,    3.2781,  999.0000,  999.0000,  999.0000,   -1.3179,   -1.7293,   -2.0806,   -1.8282,   -1.5455,   -1.6428,   -1.7503,  999.0000,  999.0000,  999.0000,   -3.0161,   -4.8372,   -6.7541,   -7.6655,   -8.4944,   -8.8289,   -9.0960,   -9.0445,
 10-AUG-2000 02:50:23.00,  999.0000,    0.4600,    0.7365,    0.9058,    0.6630,    0.5424,    0.8131,    1.4427,    3.0432,    4.3645,  999.0000,  999.0000,  999.0000,  999.0000,    7.7414,    8.4925,    9.3585,    9.9687,   10.2379,   10.8493,   11.8616,   12.3065,   12.1660,   12.3169,   12.7324,   13.5869,   14.7924,   15.4209,   14.9869,   14.5530,   14.1860,   13.8577,   13.4163,   12.9185,   11.9935,   11.1007,    9.1629,    6.6268,    5.4939,  999.0000,  999.0000,    3.2148,    2.6576,    2.1416,    0.8013,   -0.6764,   -1.5216,   -2.2876,   -2.7930,   -3.2760,   -2.7281,   -2.1288,   -2.1474,   -2.1885,  999.0000,  999.0000,  999.0000,  999.0000,  999.0000,   -7.5911,   -8.4124,   -9.1501,   -9.3862,   -9.5302,   -9.2391,
 10-AUG-2000 02:55:27.00,    0.3886,    0.3903,    0.7458,    1.0107,    0.9273,    0.9886,    1.5123,    2.2773,    3.6949,    4.8618,    5.4484,    5.8843,    6.0189,    6.4735,    7.4844,    8.3527,  999.0000,  999.0000,   10.3079,   10.7700,  999.0000,  999.0000,   11.4897,   11.3638,  999.0000,  999.0000,  999.0000,   14.8240,   14.9290,   15.0340,   14.7577,   14.2620,   13.7167,   13.1465,   11.7599,  999.0000,  999.0000,    5.9417,    5.0752,    4.4989,    4.0517,    3.6556,    3.2361,    2.8675,    1.6028,    0.1970,   -0.8426,   -1.8365,   -2.4002,   -2.9268,   -2.6221,   -2.2759,   -2.2121,   -2.1576,   -2.3986,   -2.6821,   -3.8138,   -4.9232,   -5.7742,   -6.6280,   -7.5044,   -8.3076,   -8.6717,   -8.9726,   -8.9752,
 10-AUG-2000 03:00:31.00,    0.8413,    0.8870,    1.2176,    1.4093,    1.0670,    1.0336,  999.0000,  999.0000,    3.8973,    4.7201,  999.0000,  999.0000,    6.2737,    6.9332,    7.8387,    8.5869,    9.0960,    9.6590,   10.2939,   10.8035,   11.1663,   11.4024,   11.5077,   11.9473,   12.6905,   13.4255,   14.1541,   14.1299,   14.1732,   14.2166,   14.1127,   13.9241,   13.4113,   12.7363,   11.9512,   11.1186,    9.6557,  999.0000,    4.5268,    3.6799,  999.0000,  999.0000,  999.0000,    2.7720,    1.4615,   -0.0005,   -0.6825,   -1.2671,   -1.5991,   -1.9094,   -1.5535,   -1.1644,   -1.6956,   -2.2375,   -2.5236,   -2.8173,   -3.2628,   -3.8001,   -5.4001,   -6.9051,   -7.6515,   -8.3641,   -8.8743,   -9.3513,   -9.6155,
 10-AUG-2000 03:05:35.00,    0.9003,    0.9914,    1.3264,    1.6098,    1.6947,    1.8489,    2.2248,    2.7175,  999.0000,  999.0000,    5.1423,    5.8020,    6.1648,    6.6764,  999.0000,  999.0000,    8.9871,    9.6206,  999.0000,  999.0000,   10.9746,   11.3927,  999.0000,  999.0000,   12.5448,   12.8438,   13.0750,   13.3312,   13.3854,   13.3461,   13.1494,   12.8326,   12.4809,   12.1117,   11.4896,   10.7583,    9.2536,  999.0000,  999.0000,    3.8816,    3.3471,    3.1394,    2.6956,    2.2019,    0.4443,   -1.5239,   -2.2984,   -2.7398,   -3.0460,   -3.3833,   -2.9833,   -2.5457,   -2.7935,   -2.9858,   -3.4170,   -3.7625,   -3.7148,   -3.8523,   -5.6525,   -7.3595,   -8.3474,   -9.2394,   -9.5575,   -9.8471,  999.0000,
 10-AUG-2000 03:10:44.00,    1.1035,    1.1454,    1.1088,    1.0894,    1.1362,    1.3327,  999.0000,  999.0000,  999.0000,  999.0000,  999.0000,  999.0000,  999.0000,  999.0000,  999.0000,  999.0000,    8.7565,    9.2311,    9.4389,    9.7256,  999.0000,  999.0000,  999.0000,  999.0000,  999.0000,  999.0000,  999.0000,  999.0000,   13.1383,   12.7967,   12.5795,   12.3161,   11.9394,   11.5060,   11.0816,   10.6610,    9.3448,  999.0000,  999.0000,    4.4031,    3.7976,    3.4631,    2.8879,    2.0962,    0.8175,   -0.6131,  999.0000,  999.0000,  999.0000,   -3.0723,   -2.4989,   -1.8670,  999.0000,  999.0000,  999.0000,  999.0000,  999.0000,  999.0000,  999.0000,   -7.4000,   -8.5728,   -9.5861,   -9.6431,   -9.6788,   -9.6135,
 10-AUG-2000 03:15:49.00,    0.9581,    1.1338,    1.0475,    1.0753,  999.0000,  999.0000,  999.0000,  999.0000,  999.0000,  999.0000,    4.3394,    4.9561,  999.0000,  999.0000,    7.7079,    8.3855,  999.0000,  999.0000,  999.0000,  999.0000,  999.0000,  999.0000,   10.5821,   10.4871,  999.0000,  999.0000,  999.0000,   12.9945,   13.0976,   13.2007,   12.8219,   12.1658,   11.6421,   11.1848,   10.4963,   10.0154,    8.6621,    3.9595,  999.0000,    3.7421,    2.9943,    2.4692,  999.0000,  999.0000,  999.0000,   -1.3395,   -1.6382,   -1.8561,   -2.1201,   -2.3880,   -2.1868,   -1.9621,   -2.1993,   -2.4507,  999.0000,  999.0000,  999.0000,   -5.5231,   -6.5159,   -7.5504,   -8.2442,   -8.8353,   -8.7375,   -8.6849,   -8.6764,
 10-AUG-2000 03:20:53.00,    1.0713,    1.1380,    1.0429,    1.0811,  999.0000,  999.0000,  999.0000,  999.0000,  999.0000,  999.0000,  999.0000,  999.0000,  999.0000,  999.0000,  999.0000,  999.0000,  999.0000,  999.0000,  999.0000,  999.0000,  999.0000,  999.0000,  999.0000,  999.0000,   12.6407,   12.7202,  999.0000,   13.3708,   13.3154,   13.2399,   12.8908,   12.4109,   11.7470,   11.0047,    9.8509,  999.0000,  999.0000,    5.0880,    4.2213,    3.5810,  999.0000,  999.0000,  999.0000,  999.0000,  999.0000,   -1.4605,   -1.7177,   -1.8992,   -2.0942,   -2.2904,   -2.2687,   -2.2361,   -2.6804,   -3.1306,   -3.3595,   -3.5928,  999.0000,  999.0000,  999.0000,   -8.3752,   -8.7720,   -9.1083,  999.0000,  999.0000,  999.0000,
 10-AUG-2000 03:25:57.00,    0.7666,    0.6749,    1.1591,    1.5823,    1.7710,    2.0543,  999.0000,  999.0000,    3.8121,    4.2975,    4.5506,    5.0513,  999.0000,  999.0000,    8.0379,    8.8188,  999.0000,  999.0000,   10.1837,   10.6852,   11.2411,   11.7095,  999.0000,  999.0000,   12.8440,   12.8690,  999.0000,   13.7946,   13.5214,  999.0000,  999.0000,   12.7018,   11.8149,   10.6211,   10.2382,   10.2055,    8.9419,  999.0000,    3.4833,    3.5130,    2.8870,    2.5520,    1.4939,    0.2283,   -0.7626,   -1.7131,   -2.1074,   -2.4323,   -2.6125,   -2.7803,   -2.6590,   -2.5233,   -2.6081,   -2.7115,  999.0000,  999.0000,  999.0000,   -7.3355,   -7.8770,   -8.3815,   -8.5907,   -8.7364,   -8.5015,   -8.3503,   -8.5942,
 10-AUG-2000 03:31:01.00,    0.8053,    0.7601,    1.3862,    1.8901,    1.9237,    2.0365,    2.4022,    2.8888,    3.7022,    4.5226,    5.3594,    5.9498,    6.0478,    6.7117,    8.3590,    9.4022,  999.0000,  999.0000,    9.7796,    9.9233,  999.0000,  999.0000,   10.4170,   10.7234,  999.0000,  999.0000,   12.0291,   13.0980,   12.9648,   12.0631,  999.0000,   12.5651,   11.8120,   10.7488,   10.3568,   10.2546,    9.1242,    5.4541,  999.0000,  999.0000,  999.0000,  999.0000,  999.0000,    0.0322,   -0.9584,   -1.8993,   -2.3748,   -2.7921,   -2.8216,   -2.8176,   -2.6134,   -2.3992,   -2.6321,   -2.8719,   -3.0904,   -3.3876,   -5.2555,   -7.0294,   -7.7136,   -8.2787,   -7.8918,   -7.5974,   -7.8572,   -8.1716,   -8.7439,
 10-AUG-2000 03:36:05.00,    0.9757,    0.9947,    1.4146,    1.7934,    2.0143,    2.3199,    2.8963,    3.3708,    3.5697,    3.8411,    4.2799,    4.7535,    5.2962,    6.1601,    7.5820,    8.7293,    9.4593,    9.8826,    9.8972,   10.1449,   10.6657,   10.9604,   11.0218,   11.2397,   11.5996,   11.8204,   11.9301,   12.8231,   12.5522,   11.8666,  999.0000,   11.8001,   11.1784,   10.2086,   10.1346,   10.4219,    8.7102,    6.2222,    4.7533,    3.4984,    2.8579,    2.3811,    1.4217,    0.3603,   -0.6397,   -1.6295,   -2.2016,   -2.7215,   -3.0244,   -3.3087,   -3.1635,   -2.9969,   -3.1230,   -3.2572,   -3.5937,   -3.9935,   -5.9891,   -7.6618,   -8.4220,   -9.0158,   -9.2013,   -9.3209,   -9.0459,   -8.8368,   -8.8945,
 10-AUG-2000 03:41:10.00,  999.0000,    0.3794,    0.4087,    0.6542,    1.7309,    2.5637,    2.6163,    2.9301,    3.9497,    4.7610,    5.0902,    5.5252,    6.1718,    6.9860,  999.0000,  999.0000,   10.3017,   10.9537,   11.0020,   11.3036,   11.9019,   12.0905,   11.8564,   11.8876,   12.1597,   12.3261,   12.4080,   12.4900,  999.0000,   13.0205,   12.5900,   12.1595,   11.5774,  999.0000,  999.0000,    9.7537,    8.2987,  999.0000,  999.0000,    2.9519,    2.1802,    1.6714,    1.0405,    0.3838,   -0.5959,   -1.6294,   -2.0875,   -2.4738,   -2.7343,   -2.9841,   -2.7769,   -2.5468,   -2.6275,   -2.7129,   -2.7882,   -2.9325,  999.0000,  999.0000,  999.0000,   -8.1785,   -8.3377,   -8.4761,   -8.4901,   -8.5541,  999.0000,
 10-AUG-2000 03:46:14.00,    0.3552,    0.0361,  999.0000,  999.0000,    1.7938,    2.3196,    2.6532,    3.1036,    3.8702,    4.6968,    5.6623,    6.4512,    6.8872,    7.3792,  999.0000,  999.0000,  999.0000,  999.0000,   10.3270,   10.7071,   10.8417,   10.8603,   10.7594,   10.9076,  999.0000,  999.0000,   12.0311,   11.8735,  999.0000,   13.0776,   12.3383,   11.5851,   10.7136,    9.7829,    9.2513,    8.8923,    7.5973,  999.0000,  999.0000,    2.6743,    1.9458,    1.4545,    0.7828,    0.0731,   -0.8056,   -1.7124,   -2.0682,   -2.3551,   -2.8449,   -3.3521,   -3.1301,   -2.8716,   -3.0602,   -3.2593,   -3.6581,   -4.1398,   -6.2754,   -8.2414,   -8.2426,   -8.2758,   -8.5643,   -8.7369,   -8.2147,   -7.8616,   -8.3064,
 10-AUG-2000 03:51:19.00,    0.6475,    0.5059,    0.6493,    0.9388,    1.7902,    2.5469,  999.0000,  999.0000,    3.9074,    4.4664,  999.0000,  999.0000,  999.0000,  999.0000,  999.0000,  999.0000,   10.0884,   10.6284,  999.0000,  999.0000,   11.1968,   11.3041,  999.0000,  999.0000,   11.3721,   11.5985,  999.0000,   12.3246,   12.3519,   12.3792,   12.2533,   12.0393,   11.2288,   10.1200,    9.4090,    9.0886,    7.8617,    4.7305,  999.0000,    3.2244,    2.2708,    1.4451,    0.7587,    0.1018,   -0.4242,   -0.9284,   -1.3631,   -1.7892,   -1.9383,   -2.0636,   -2.0308,   -1.9902,   -2.3867,   -2.7931,   -3.3835,   -4.0318,   -5.8398,   -7.6490,   -7.5807,   -7.8613,   -7.9644,   -8.0353,   -7.9125,   -7.8344,   -8.0740,
 10-AUG-2000 03:56:23.00,    0.8530,    0.7581,    0.8780,    1.1014,  999.0000,  999.0000,    2.9645,    3.6160,  999.0000,  999.0000,  999.0000,  999.0000,    7.2855,    7.9592,  999.0000,  999.0000,    9.6664,   10.0749,   10.2695,   10.4687,   10.6736,   10.6328,   10.3387,   10.3536,   10.6492,   10.4391,  999.0000,   12.2717,   12.4525,   12.6333,   12.6081,   12.4645,   11.7099,   10.6497,    9.5707,  999.0000,  999.0000,    5.9615,    4.8571,    3.8103,    2.7547,    1.6968,    1.0203,    0.4244,   -0.4749,   -1.4248,   -2.1808,   -2.9125,   -2.9836,   -2.9977,   -3.2928,   -3.6019,   -3.8467,   -4.0885,   -4.2057,   -4.3799,  999.0000,  999.0000,  999.0000,   -8.8765,   -8.6523,   -8.2931,   -8.5199,   -8.7369,  999.0000,
 10-AUG-2000 04:01:27.00,  999.0000,  999.0000,  999.0000,  999.0000,    1.3291,    1.6000,  999.0000,  999.0000,    4.1630,    5.0456,    5.9936,    6.8294,    7.4409,    8.0393,  999.0000,  999.0000,    9.7663,   10.0619,    9.9843,   10.0685,   10.3421,   10.6841,   11.0966,   11.3796,  999.0000,  999.0000,   11.8755,   11.8224,   11.9928,   12.1252,   11.7795,   11.1586,   10.7198,   10.3720,   10.1012,    9.8638,    8.7541,    7.3336,    5.6925,    4.0318,    3.2205,    2.6336,    1.9467,    1.2388,    0.1446,   -1.0139,   -1.7428,   -2.4180,   -2.6162,   -2.7733,   -2.7985,   -2.8172,   -3.0354,   -3.2524,   -3.1963,   -3.2464,   -5.5575,   -7.6088,  999.0000,  999.0000,  999.0000,   -7.9616,   -8.8380,   -9.7047,  -10.5255,
 10-AUG-2000 04:06:31.00,    1.0806,    0.8345,    1.0290,    1.2028,    1.2964,    1.5273,    2.1973,    2.9601,  999.0000,  999.0000,    6.0016,    6.8061,    7.1923,    7.6391,  999.0000,  999.0000,  999.0000,  999.0000,   10.3991,   10.8157,  999.0000,  999.0000,  999.0000,  999.0000,   12.1055,   11.3551,   11.9190,   12.3282,   12.5495,   12.5728,   11.6943,   10.2968,    9.6870,    9.4712,    9.0772,    8.6063,    7.4708,  999.0000,  999.0000,    3.3036,    2.7472,    2.4088,    1.7718,    1.0716,   -0.1722,   -1.5067,   -2.4529,   -3.2244,   -3.2169,   -3.0585,   -3.0448,   -3.0312,   -3.6406,   -4.0938,   -3.5469,   -3.1026,  999.0000,  999.0000,  999.0000,   -8.1936,   -8.5781,   -8.9693,   -9.4007,   -9.7733,   -9.9745,
 10-AUG-2000 04:11:36.00,    1.3864,    1.0234,    1.0468,    1.1677,    1.6637,    2.2610,    3.1827,    4.0964,    4.9888,    5.7730,    6.3070,    6.7624,    7.0609,    7.3698,  999.0000,  999.0000,  999.0000,  999.0000,  999.0000,  999.0000,    9.6612,   10.0081,   10.3753,   10.6290,  999.0000,  999.0000,   11.0811,   11.5408,   11.7560,   11.9711,   11.0812,    9.5555,    8.8386,    8.5263,    8.1085,    7.6452,    6.5048,    5.1141,    3.6934,    2.2633,    1.8476,    1.6957,    1.0909,    0.3904,   -0.4265,   -1.2628,  999.0000,  999.0000,  999.0000,   -2.4369,   -2.4109,   -2.3713,  999.0000,  999.0000,  999.0000,   -3.7633,   -5.1039,   -6.3340,   -6.2850,   -6.2991,   -6.8170,   -7.3710,   -8.1410,   -8.8620,  999.0000,
 10-AUG-2000 04:16:40.00,    2.0258,    1.7091,    1.0917,    0.7199,    1.2919,    1.8140,    2.1769,    2.7861,    4.0618,    5.0969,    5.5753,    6.1151,    6.7778,    7.4833,  999.0000,  999.0000,    9.8225,   10.2604,  999.0000,  999.0000,   10.2077,   10.4429,   10.9389,   11.3658,   11.7301,   11.7675,   11.5436,   12.0011,   11.9163,   11.8314,   11.1465,   10.1164,    9.1887,    8.3123,    7.8073,    7.4627,    6.2939,    4.8205,    3.4809,    2.1831,    1.4735,    0.9170,    0.5548,    0.2337,   -0.7082,   -1.7535,   -2.1932,   -2.5571,   -2.5411,   -2.4922,   -2.6907,   -2.9015,   -3.3423,   -3.7825,   -3.9519,   -4.1810,   -5.6028,   -6.9241,   -7.0815,   -7.2277,   -7.2833,   -7.4655,   -8.4056,   -9.2830,   -9.8635,
 10-AUG-2000 04:21:44.00,    0.8227,    0.0602,    0.1744,    0.4582,    1.3944,    2.1976,    2.5750,    3.2412,    4.6880,    5.8331,  999.0000,  999.0000,    7.1739,    7.5757,  999.0000,  999.0000,  999.0000,  999.0000,  999.0000,  999.0000,    9.8388,   10.3390,  999.0000,  999.0000,   12.3863,   12.3485,  999.0000,   11.1600,   11.0021,   10.8442,   10.1706,    9.2005,    8.1351,    7.0221,    6.4759,    6.1744,    5.4356,    4.5351,    3.6167,    2.6929,    2.1857,    1.7870,    1.2712,    0.7307,   -0.0205,   -0.8068,   -1.3359,   -1.8329,   -1.8127,   -1.7480,   -1.8526,   -1.9656,   -2.6279,   -3.2941,   -3.6593,   -4.0738,   -5.4728,   -6.7640,   -6.8066,   -6.8880,   -7.2794,   -7.7098,   -8.3745,   -9.0404,   -9.7117,
 10-AUG-2000 04:26:49.00,    1.2954,    0.8689,    0.9640,    1.2098,    2.0349,    2.7425,    3.0746,    3.6812,    5.0300,    6.1188,    6.6060,    7.1258,  999.0000,  999.0000,    8.8813,    9.3858,    9.7676,   10.1584,  999.0000,  999.0000,  999.0000,  999.0000,   12.1724,   12.1256,  999.0000,  999.0000,   10.7607,   10.2971,   10.4465,   10.5960,   10.1766,    9.4298,    8.4476,    7.3477,    6.9261,    6.7975,    6.1520,    5.3155,    4.2329,    3.0735,    2.1922,    1.3834,    0.7115,    0.0686,   -0.8232,   -1.7564,   -2.3601,   -2.9225,   -2.6402,   -2.2852,   -2.5291,   -2.8030,   -3.3994,   -4.0022,   -4.6802,   -5.3615,   -6.1084,   -6.7889,   -6.6997,   -6.6453,   -6.8684,   -7.1324,   -7.6415,   -8.1343,   -8.4418,
 10-AUG-2000 04:31:53.00,  999.0000,    0.9136,    1.4622,    1.9259,    2.0634,    2.3224,  999.0000,  999.0000,  999.0000,  999.0000,    5.5604,    6.1091,    6.4602,    7.0779,    8.1590,    8.7970,  999.0000,  999.0000,    8.6916,    9.1005,   10.0295,   10.9059,   11.7280,   11.9491,   11.6244,   11.2069,   10.7154,   11.1853,   11.1180,   11.1804,   10.3385,    9.1156,    8.2333,    7.5213,    7.2033,    7.0555,    6.1806,    5.0369,    4.2059,    3.4727,    2.4873,    1.4364,    0.5483,   -0.3054,   -1.2136,   -2.1309,   -2.5445,   -2.8952,   -2.7278,   -2.5158,   -3.0184,   -3.4313,   -3.7286,   -3.9861,   -4.9840,   -5.9613,   -6.5265,   -7.0339,   -6.8718,   -6.7464,   -6.9145,   -7.1552,   -7.8313,   -8.4519,  999.0000,
 10-AUG-2000 04:36:57.00,    1.5176,    1.3684,  999.0000,  999.0000,    2.5183,    2.8176,    2.8483,    3.1867,    4.3570,    5.2993,  999.0000,  999.0000,  999.0000,  999.0000,  999.0000,  999.0000,  999.0000,  999.0000,    9.0307,    9.5750,   10.2714,   10.4841,  999.0000,  999.0000,  999.0000,  999.0000,  999.0000,  999.0000,  999.0000,   11.6161,   10.7795,    9.9366,    8.9200,    7.8166,    7.2661,    6.9544,    6.1334,    5.1242,    4.1789,    3.2536,    2.2387,    1.2005,    0.5398,   -0.0410,   -0.7797,   -1.5448,   -1.9566,   -2.3242,   -2.2791,   -2.1986,  999.0000,  999.0000,  999.0000,   -3.5577,   -4.2006,   -4.8544,   -5.7259,   -6.5330,   -6.5954,   -6.6450,   -6.5922,   -6.6171,   -7.1077,   -7.6012,   -8.1080,
 10-AUG-2000 04:42:01.00,    1.8058,    1.4267,    1.5993,    1.8447,    2.3699,    2.8769,    3.3261,    3.9288,    4.9470,    5.7074,    5.8713,    6.2356,  999.0000,  999.0000,    8.5310,    9.0190,    9.0863,    9.2404,  999.0000,  999.0000,  999.0000,  999.0000,   10.5887,   10.8259,   11.0337,   10.9904,  999.0000,   11.5248,   11.0790,   10.6332,   10.0849,    9.4777,    8.6510,    7.7145,    7.1574,    6.7642,    5.9468,    4.9725,    4.0136,    3.0595,    2.0421,    1.0083,    0.2497,   -0.4508,   -1.2170,   -1.9942,   -2.3818,   -2.7206,   -2.8889,   -3.0424,   -3.0020,   -2.9519,   -3.2152,   -3.4888,   -4.0802,   -4.6857,   -5.5718,   -6.3883,   -6.3368,   -6.2784,   -6.4787,   -6.9119,   -7.0758,   -7.3784,   -8.3360,
 10-AUG-2000 04:47:05.00,    2.0248,    1.7711,  999.0000,  999.0000,    3.0132,    3.4028,    3.7144,    4.2227,    5.2628,    6.0183,    6.1148,    6.3611,    6.9068,    7.4674,  999.0000,  999.0000,  999.0000,  999.0000,   10.4006,   10.7110,   10.6978,   10.8640,   11.2151,   11.3439,   11.2707,   10.9409,  999.0000,   11.2365,   10.4540,    9.6716,    8.6328,    7.4466,    6.7791,    6.3712,    6.0197,    5.6925,    5.1411,    4.5068,    3.7325,    2.9144,    1.8300,    0.6764,    0.1760,   -0.1862,   -0.7723,   -1.3957,   -1.8728,   -2.3316,   -2.7904,   -3.2492,   -3.1256,   -2.9729,   -2.9328,   -2.9072,   -3.6736,   -4.4436,   -5.2846,   -6.0911,  999.0000,  999.0000,  999.0000,   -7.8543,   -8.1469,   -8.4149,   -8.5671,
 10-AUG-2000 04:52:09.00,    2.1669,    1.7057,    1.6296,    1.7073,  999.0000,  999.0000,    3.7129,    4.4573,    5.4068,    6.2060,  999.0000,  999.0000,  999.0000,  999.0000,    8.4638,    8.8783,  999.0000,  999.0000,  999.0000,  999.0000,  999.0000,  999.0000,   11.3873,   11.6303,  999.0000,  999.0000,   12.0450,   12.0704,   11.2313,   10.3922,    9.3810,    8.1834,    7.2895,    6.5640,    5.9701,    5.4661,    5.0209,    4.5974,    3.3896,    1.9367,    1.0777,    0.3732,   -0.0324,   -0.3748,   -0.9129,   -1.4836,   -1.8290,   -2.1462,   -2.3667,   -2.5789,   -2.7216,   -2.8608,   -3.3091,   -3.7573,   -3.8893,   -4.0696,   -5.2116,   -6.2532,   -6.1322,   -6.0574,   -6.3521,   -6.6908,   -7.2930,   -7.8158,   -7.9634,
 10-AUG-2000 04:57:14.00,  999.0000,  999.0000,  999.0000,  999.0000,  999.0000,  999.0000,    3.7406,    4.0489,  999.0000,  999.0000,    5.8461,    6.3652,  999.0000,  999.0000,  999.0000,  999.0000,  999.0000,  999.0000,  999.0000,  999.0000,    9.5989,    9.7863,  999.0000,  999.0000,  999.0000,  999.0000,  999.0000,   11.0338,   10.3106,    9.5873,    8.7291,  999.0000,  999.0000,    6.0284,    5.2997,    4.6329,    4.1232,    3.6715,    2.5974,    1.3287,    0.8997,    0.6891,    0.2377,   -0.2873,   -0.9970,   -1.8231,   -2.4602,   -3.0790,   -3.1775,   -3.2312,   -3.1327,   -2.9650,   -3.3978,   -3.7879,   -4.2388,   -4.7108,   -5.6054,   -6.4336,   -6.4927,   -6.5693,   -6.7858,   -7.0585,   -7.6679,   -8.2164,   -8.4773,
 10-AUG-2000 05:02:18.00,    1.7174,    1.1479,    2.0491,    2.8388,    3.2001,    3.6105,  999.0000,  999.0000,  999.0000,  999.0000,  999.0000,  999.0000,  999.0000,  999.0000,    8.7138,    9.1062,  999.0000,  999.0000,  999.0000,  999.0000,  999.0000,  999.0000,  999.0000,  999.0000,  999.0000,  999.0000,   10.5062,   11.3214,   10.1630,    8.9381,    7.8335,    6.7982,    6.0056,    5.3344,    4.6933,    4.0652,    3.7526,    3.5567,    2.4244,    0.9994,    0.4796,    0.1953,  999.0000,  999.0000,  999.0000,   -2.0906,   -2.7426,   -3.4126,   -3.2707,   -3.0589,  999.0000,  999.0000,  999.0000,   -3.1809,   -3.7712,   -4.3586,   -4.8896,   -5.3798,   -5.3994,   -5.4588,   -5.8367,   -6.2552,   -6.9168,   -7.5784,   -8.2401,
 10-AUG-2000 05:07:22.00,    2.7715,    2.3658,    2.3102,    2.4476,    3.3268,    4.0760,    4.4096,    4.8513,    5.5857,    6.1753,    6.4299,    6.6586,    6.8356,    7.1090,  999.0000,  999.0000,  999.0000,  999.0000,    9.3131,    9.6729,  999.0000,  999.0000,   10.4672,   10.7466,   11.0392,   11.0683,   11.1416,   11.2150,   10.7206,    9.8526,    8.8985,    7.8948,    7.0690,    6.3321,    5.4328,    4.4635,    4.0934,    3.9450,    2.6899,    1.0888,    0.4095,   -0.0301,   -0.7629,   -1.5577,   -1.6837,   -1.6982,   -1.9544,   -2.2408,   -2.8211,   -3.4267,   -3.2499,   -3.0340,   -3.0970,   -3.1710,   -3.6446,   -4.1203,   -4.6386,   -5.1374,   -5.4102,   -5.6849,   -5.9737,   -6.2621,   -6.5469,   -6.9728,   -8.0645,
 10-AUG-2000 05:12:26.00,    1.3731,    1.0496,    1.4373,    1.9161,    2.7456,    3.4998,    4.0133,    4.4926,  999.0000,  999.0000,  999.0000,  999.0000,  999.0000,  999.0000,    7.2012,    7.6535,    8.2051,    8.9040,    9.7993,   10.2654,   10.2289,   10.2876,  999.0000,  999.0000,  999.0000,   10.9372,   11.0533,   11.1694,   10.9380,   10.4780,    9.4968,    8.2158,    7.4185,    6.8630,    6.0790,    5.1961,    4.6981,    4.3422,    2.8613,    1.0287,    0.2841,   -0.1776,   -0.7709,   -1.3920,   -1.9002,   -2.3896,   -2.5113,   -2.5871,   -3.1239,   -3.7004,   -3.5338,   -3.3301,   -3.3952,   -3.4650,   -3.5045,   -3.6379,   -4.6911,   -5.6819,   -5.9495,   -6.2309,   -6.6219,   -7.0392,   -7.6140,   -8.2249,   -9.0066,
 10-AUG-2000 05:17:30.00,    2.4926,    1.8642,    1.5087,    1.4667,    2.6297,    3.6008,    3.9577,    4.3707,    4.9354,    5.4739,  999.0000,  999.0000,  999.0000,  999.0000,    7.8634,    8.3420,    8.8219,    9.2942,    9.7565,   10.0311,  999.0000,  999.0000,  999.0000,  999.0000,  999.0000,    9.7951,   10.0630,   10.3308,    9.8131,    8.7783,    7.6033,    6.3476,    5.7464,    5.4724,    4.7373,    3.8030,    3.3964,    3.1850,    1.8020,    0.0528,   -0.6097,   -0.9896,   -1.5198,   -2.0817,   -2.2982,   -2.4570,   -2.8591,   -3.2915,   -3.4978,   -3.6846,   -3.6813,   -3.6685,   -3.7226,   -3.7827,  999.0000,  999.0000,  999.0000,  999.0000,  999.0000,  999.0000,  999.0000,  999.0000,  999.0000,  999.0000,  999.0000,
 10-AUG-2000 05:22:34.00,    2.1655,    1.7351,    1.8770,    2.1654,    3.0168,    3.7271,    3.9861,    4.4192,    5.3233,    5.9616,    5.9850,    6.1729,  999.0000,  999.0000,  999.0000,  999.0000,    8.7549,    9.2224,  999.0000,  999.0000,   10.4293,   10.7279,   10.9196,   10.9525,  999.0000,   10.5213,   10.6209,   10.8368,   10.2928,    9.4370,    8.2468,    6.9516,    6.2500,    5.8453,    5.1702,    4.3782,    3.9740,    4.0716,    2.8645,    1.1205,    0.4215,   -0.0859,   -0.9087,   -1.7982,   -2.2320,   -2.5899,   -2.7968,   -2.9848,   -3.1481,   -3.3093,   -3.3494,   -3.3835,   -3.5378,   -3.7004,   -4.2597,   -4.8048,   -5.0669,   -5.3267,   -5.5584,   -5.7936,   -6.0557,   -6.4192,   -7.3902,   -8.3197,   -9.0530,
 10-AUG-2000 05:27:38.00,  999.0000,  999.0000,  999.0000,    2.2272,    3.0714,    3.8012,    4.1654,    4.5653,  999.0000,  999.0000,    6.0530,    6.5387,  999.0000,  999.0000,    7.9344,    8.3444,  999.0000,  999.0000,    9.3231,    9.7140,   10.1807,   10.6474,  999.0000,  999.0000,  999.0000,  999.0000,  999.0000,  999.0000,  999.0000,    9.9766,    8.4874,    6.9982,    6.0827,    5.4541,    4.7451,    3.7795,    2.9038,  999.0000,  999.0000,    0.1676,   -0.5543,   -1.1809,   -1.9531,   -2.7561,   -3.1154,   -3.2787,   -3.8066,   -4.3802,   -4.5098,   -4.6012,   -4.1904,   -3.7294,   -3.8449,   -3.9745,   -4.5119,   -5.0548,   -5.7085,   -6.3184,   -6.4217,   -6.5788,   -7.1659,   -7.7620,   -8.4122,   -9.0190,   -9.4211,
 10-AUG-2000 05:32:42.00,  999.0000,  999.0000,  999.0000,  999.0000,    3.1438,    3.8030,  999.0000,  999.0000,    5.5717,    6.1147,  999.0000,  999.0000,    7.4203,    7.8377,  999.0000,  999.0000,    8.9963,    9.3577,  999.0000,  999.0000,  999.0000,  999.0000,  999.0000,  999.0000,   11.6567,   11.3696,  999.0000,  999.0000,  999.0000,   10.4564,    8.9811,    7.4443,    6.4288,    5.6397,    5.1062,  999.0000,  999.0000,    4.0268,    2.7071,    1.0728,    0.2101,   -0.4520,   -1.1721,   -1.9044,  999.0000,  999.0000,  999.0000,  999.0000,  999.0000,  999.0000,  999.0000,   -3.4399,   -3.5276,   -3.6276,   -4.2260,   -4.8197,   -5.3180,   -5.7730,   -5.7255,   -5.7829,   -6.6780,   -7.5651,   -8.4045,   -9.1383,   -9.3733,
 10-AUG-2000 05:37:46.00,    2.5467,    2.2376,    2.3546,    2.5272,  999.0000,  999.0000,    3.6858,    4.2091,    5.1029,    5.8836,  999.0000,  999.0000,    7.4394,    7.8795,  999.0000,  999.0000,    8.7901,    9.1417,  999.0000,  999.0000,   10.3881,   10.7920,   11.1841,   11.4090,   11.4822,   11.5415,   11.5898,   11.8988,   10.6058,  999.0000,  999.0000,    6.7336,    5.8062,    5.0225,    4.2678,    3.5257,    3.1542,    2.9910,    1.9687,    0.6444,   -0.2966,   -1.1546,   -1.7018,   -2.1833,   -2.6156,   -3.0397,   -3.7189,   -4.4299,   -4.6727,   -4.8753,   -4.2018,   -3.4846,   -3.8316,   -4.1973,   -4.6687,   -5.1223,   -5.2201,   -5.3135,   -5.3547,   -5.4810,   -6.2861,   -7.0947,   -7.9237,   -8.7398,   -9.4953,
 10-AUG-2000 05:42:51.00,    2.7070,    2.0654,  999.0000,  999.0000,  999.0000,  999.0000,  999.0000,  999.0000,    4.7561,    5.1989,    5.7767,    6.4224,    7.2036,    7.8138,    8.1269,    8.4103,    8.6488,    8.9487,    9.3305,    9.7066,  999.0000,  999.0000,   10.8148,   10.6801,  999.0000,   10.8567,   10.1925,  999.0000,  999.0000,  999.0000,  999.0000,    6.6896,    6.1316,    5.6824,    5.1024,    4.4660,    3.6268,    3.1885,  999.0000,    0.5331,   -0.2773,   -1.0089,   -1.7398,   -2.4705,   -2.9692,   -3.4292,   -3.9180,   -4.4103,   -4.5346,   -4.6271,   -4.2851,   -3.9215,   -4.2092,   -4.5043,   -4.6068,   -4.7191,   -5.0269,   -5.3055,   -5.2459,   -5.3142,   -6.4040,   -7.5053,   -8.6755,   -9.7507,  -10.3776,
 10-AUG-2000 05:47:55.00,    2.6858,    2.4980,  999.0000,  999.0000,  999.0000,  999.0000,    3.8609,    4.2452,    4.9313,    5.5279,  999.0000,  999.0000,  999.0000,  999.0000,    7.4761,    7.8272,  999.0000,  999.0000,  999.0000,  999.0000,    9.2901,    9.5827,  999.0000,  999.0000,  999.0000,   10.8971,   10.3178,  999.0000,  999.0000,    8.2906,    7.1455,    5.7787,    5.0782,    4.7109,    4.1946,    3.6138,    3.3055,    3.0979,    1.9020,    0.3971,   -0.2411,   -0.6539,   -1.5864,   -2.6287,   -2.9408,   -3.1311,   -3.7244,   -4.3680,   -4.6950,   -4.9947,   -4.6926,   -4.3605,   -4.3109,   -4.2701,   -4.4975,   -4.7240,   -4.9333,   -5.1099,   -4.9090,   -4.8213,   -5.5797,   -6.4962,   -7.9904,   -9.2384,   -9.3241,
 10-AUG-2000 05:52:59.00,  999.0000,  999.0000,  999.0000,    3.0149,    3.7274,    4.3828,  999.0000,  999.0000,  999.0000,  999.0000,    6.7479,    7.1841,  999.0000,  999.0000,  999.0000,  999.0000,  999.0000,  999.0000,    9.7238,   10.1145,  999.0000,  999.0000,   11.3851,   11.1341,  999.0000,   10.7247,   10.6180,   10.5113,    9.6880,    8.2869,    6.8879,    5.5601,    4.9197,    4.6812,    4.1130,    3.4025,    3.1203,    2.9965,    1.6538,   -0.0698,   -0.5911,   -0.7999,   -1.7045,   -2.4049,   -2.7123,   -2.8456,   -3.4595,   -4.1077,   -4.2936,   -4.4396,   -4.3913,   -4.3332,   -4.2734,   -4.2195,   -4.5319,   -4.8411,   -5.0862,   -5.2969,   -5.1099,   -5.0152,  999.0000,  999.0000,  999.0000,  999.0000,  999.0000,
 10-AUG-2000 05:58:03.00,  999.0000,    2.2773,    2.5889,    2.8931,  999.0000,  999.0000,    3.7204,    4.1342,    4.9212,    5.5836,  999.0000,  999.0000,    6.7049,    7.0574,  999.0000,  999.0000,  999.0000,  999.0000,  999.0000,  999.0000,  999.0000,  999.0000,  999.0000,  999.0000,   10.5280,   11.3807,   11.5051,   11.6294,   10.8012,    8.2784,  999.0000,    6.4187,    5.8042,    5.6155,    5.1335,    4.5249,    4.2435,    4.0831,    2.7648,    1.0845,    0.5401,    0.2910,  999.0000,  999.0000,  999.0000,   -2.1031,   -2.3693,   -2.7918,   -3.0699,   -3.3517,   -3.3726,   -3.3804,   -3.4471,   -3.5139,   -3.5309,   -3.5689,   -4.0258,   -4.4514,   -4.5150,   -4.6339,   -5.1944,   -5.8270,   -6.8922,   -7.9110,   -8.7110,
 10-AUG-2000 06:03:07.00,  999.0000,  999.0000,  999.0000,    2.8436,    3.2562,    3.5795,    3.6175,    3.9620,    5.1353,    6.1304,  999.0000,  999.0000,  999.0000,  999.0000,    9.0441,    9.4259,  999.0000,  999.0000,    9.6563,    9.8289,  999.0000,  999.0000,  999.0000,  999.0000,   11.2528,   11.1843,   11.3688,   11.5534,   10.7438,    9.2798,    7.7004,    6.0547,    5.2509,    4.8681,    4.3900,    3.8706,    3.4900,    3.1606,    1.8417,    0.2134,   -0.5856,   -1.2590,   -1.9246,   -2.5475,  999.0000,  999.0000,  999.0000,   -4.2630,   -4.0594,   -3.8004,   -3.9752,   -4.1717,   -4.2867,   -4.3940,   -4.1130,   -3.8568,   -4.0960,   -4.3253,   -4.4393,   -4.6096,   -5.2291,   -5.8830,   -6.7431,   -7.5812,   -8.3153,
 10-AUG-2000 06:08:14.00,  999.0000,  999.0000,  999.0000,  999.0000,    3.1428,    3.4455,    3.4528,    3.6757,    4.4818,    5.1974,    5.7036,    6.2592,  999.0000,  999.0000,  999.0000,  999.0000,    9.5313,    9.7611,  999.0000,  999.0000,  999.0000,  999.0000,  999.0000,  999.0000,  999.0000,   10.5253,   10.7050,   10.8847,   10.3459,    9.3340,    7.9581,    6.3728,    5.4210,    4.7861,    4.1323,    3.4703,    3.0531,    2.7264,    1.4735,   -0.0690,  999.0000,  999.0000,  999.0000,   -2.2588,   -2.5500,   -2.8063,   -3.2780,   -3.7766,   -3.5513,   -3.2635,   -3.5954,   -4.0389,   -4.0825,   -4.1567,   -3.6956,   -3.2819,   -3.8135,   -4.3238,   -4.5891,   -4.8457,   -5.0324,   -5.3448,   -6.4095,   -7.4140,   -8.1340,
 10-AUG-2000 06:13:18.00,  999.0000,  999.0000,  999.0000,  999.0000,  999.0000,  999.0000,  999.0000,  999.0000,  999.0000,  999.0000,    5.3206,    5.7728,    6.4106,    7.0837,    7.8181,    8.4834,  999.0000,  999.0000,  999.0000,  999.0000,   11.2849,   11.4088,   11.0825,   10.6988,   10.2628,   10.5023,   10.3754,   10.2485,    9.3357,    7.9055,    6.7625,    5.7847,    5.1898,    4.7866,    4.3607,    3.8308,    3.4697,    3.2447,    1.9690,    0.3963,   -0.4149,   -1.0281,   -1.7081,   -2.4023,   -2.7327,   -3.0024,   -3.5685,   -4.1717,   -4.0552,   -3.8768,   -4.0643,   -3.7186,   -3.3544,   -4.4545,   -4.2563,   -4.0860,   -4.5814,   -4.9468,   -5.3428,   -5.7491,   -6.7605,   -7.6918,   -8.1437,   -8.5958,   -9.0490,
 10-AUG-2000 06:18:22.00,    3.1024,    2.9528,    3.4722,    3.9749,    4.4138,    4.6599,    4.2898,    4.1314,    4.5454,    4.9963,  999.0000,  999.0000,  999.0000,  999.0000,  999.0000,  999.0000,  999.0000,  999.0000,    9.8231,   10.2573,   10.5718,   10.5954,  999.0000,  999.0000,  999.0000,    9.6590,    9.8271,    9.9953,    9.3895,    8.2743,    6.9516,    5.5095,    4.9723,    4.8879,    4.5685,  999.0000,  999.0000,    3.2522,    1.9980,    0.4930,   -0.3894,   -1.1099,   -1.8275,   -2.5445,   -2.8152,   -3.0114,   -3.3127,   -3.6270,   -3.7645,   -3.8867,   -3.8918,   -3.8911,   -4.1378,   -4.3778,   -3.9591,   -3.5807,  999.0000,  999.0000,  999.0000,   -5.3827,   -6.2989,   -7.2317,   -8.2640,   -9.1589,   -9.4052,
 10-AUG-2000 06:23:27.00,    2.8639,    2.8124,    3.2366,    3.6256,    3.8786,    4.0227,    3.8179,    3.9258,    4.8797,    5.5166,    5.4200,    5.6162,    6.3974,    7.0758,  999.0000,  999.0000,  999.0000,  999.0000,    9.5750,   10.1229,  999.0000,  999.0000,   11.9354,   11.6227,   10.4772,   10.7540,   10.4045,   10.0551,    9.2089,    8.1757,    6.7330,    5.0475,    4.4405,    4.3132,    3.9790,    3.5555,    2.9835,    2.3565,    1.1313,   -0.2808,   -1.1247,   -1.8208,   -2.3042,   -2.7427,   -3.1676,   -3.6501,   -3.9976,   -4.3123,   -4.5203,   -4.7186,   -4.4561,   -4.1706,   -4.3717,   -4.5780,   -4.3843,   -4.4270,   -4.6845,   -4.9413,   -5.1898,   -5.5614,   -6.9156,   -8.0741,   -8.0595,   -8.1233,   -8.5571,
 10-AUG-2000 06:28:31.00,    2.9129,    2.6121,    2.9779,    3.3518,    3.7570,    4.1329,    4.4153,    4.6775,    4.8852,    5.1729,    5.6454,    6.1543,  999.0000,  999.0000,    7.8988,    8.4359,    8.9055,    9.2647,    9.4768,    9.7529,   10.1040,   10.1863,  999.0000,  999.0000,  999.0000,   10.6252,   10.1862,    9.7471,    8.8523,  999.0000,  999.0000,    5.0640,    4.5815,    4.5177,    4.2417,    3.8742,    3.2989,    2.6469,    1.3112,   -0.2382,   -1.0236,   -1.6103,   -2.1376,   -2.6525,  999.0000,  999.0000,  999.0000,   -4.3634,   -4.6453,   -4.9147,   -4.4161,   -3.8791,  999.0000,  999.0000,  999.0000,   -4.6823,   -4.9629,   -5.2079,   -5.0408,   -5.0257,   -6.2241,   -7.3692,   -8.1949,   -8.8855,   -8.9381,
 10-AUG-2000 06:33:36.00,  999.0000,    2.7989,    3.0637,    3.3104,  999.0000,  999.0000,    3.8414,    4.2313,    5.1969,    6.0470,  999.0000,  999.0000,    7.7959,    8.2589,    8.5135,    8.8720,    9.3884,    9.9324,   10.5132,   10.8955,  999.0000,  999.0000,   11.3454,   11.2205,  999.0000,   10.6713,   10.3417,    9.8496,    9.1373,    8.4903,    7.1684,    5.4490,    4.8265,    4.6572,    4.4350,    4.1901,    3.6163,    2.9209,    1.5454,   -0.0426,   -0.8523,   -1.4596,   -1.8653,   -2.2284,   -2.7579,   -3.3151,   -3.8993,   -4.4870,   -4.6805,   -4.8399,   -4.2923,   -3.7094,   -3.6116,   -3.5220,   -3.1497,   -3.0335,   -3.0607,   -3.1382,   -3.9182,   -4.6940,   -6.3100,   -7.6255,   -8.1521,   -8.5118,   -8.0841,
 10-AUG-2000 06:38:43.00,  999.0000,  999.0000,  999.0000,    3.6648,    4.3728,    4.7938,    4.2964,    4.1394,    4.9030,    5.5382,    5.8762,    6.2983,  999.0000,  999.0000,    8.0691,    8.5842,  999.0000,  999.0000,    9.7867,   10.2186,   10.6867,   11.0050,   11.1689,   11.1794,   11.0507,   10.5679,  999.0000,    8.9662,    7.9106,  999.0000,  999.0000,    4.4547,    3.9651,    3.8067,    3.6391,    3.4677,    2.8232,    2.0038,    0.7598,   -0.6169,   -1.4739,   -2.1958,   -2.4500,   -2.6053,   -2.9040,   -3.2266,   -3.6049,   -3.9901,   -4.2708,   -4.5425,   -4.3365,   -4.1066,   -4.3929,   -4.6870,  999.0000,  999.0000,  999.0000,  999.0000,  999.0000,  999.0000,  999.0000,   -7.2746,   -7.6389,   -7.9523,   -8.0255,
 10-AUG-2000 06:43:48.00,    3.6156,    3.3500,    3.3573,    3.3853,  999.0000,  999.0000,    3.7079,    3.9494,  999.0000,  999.0000,  999.0000,  999.0000,    6.9679,    7.5351,  999.0000,  999.0000,  999.0000,  999.0000,  999.0000,  999.0000,   11.0630,   10.9537,  999.0000,  999.0000,    9.8259,    9.7910,    9.7369,    9.6857,    8.7690,  999.0000,    4.2784,    4.2436,    3.7316,    3.6218,    3.5225,    3.4895,    2.7417,    1.8117,    0.7516,   -0.3524,   -1.0458,   -1.6323,   -2.0197,   -2.3649,   -2.6409,   -2.9054,   -3.0454,   -3.1698,   -3.4804,   -3.8070,   -3.6004,   -3.3672,   -3.5177,   -3.6718,   -3.6682,   -3.6603,   -3.5663,   -3.5434,  999.0000,  999.0000,  999.0000,   -6.8026,   -6.7929,   -7.1436,   -6.9438,
 10-AUG-2000 06:48:52.00,  999.0000,    3.6046,    3.6353,    3.7503,    4.1892,    4.5179,    4.4945,    4.6109,  999.0000,  999.0000,  999.0000,  999.0000,    7.0833,    7.3877,  999.0000,  999.0000,  999.0000,  999.0000,  999.0000,  999.0000,  999.0000,  999.0000,  999.0000,  999.0000,  999.0000,  999.0000,  999.0000,  999.0000,    7.0010,    6.9752,  999.0000,    4.0718,    3.7094,    3.3988,    3.0642,  999.0000,  999.0000,    2.0292,    1.3113,    0.4769,   -0.3548,   -1.1859,   -1.8278,   -2.4296,   -2.8952,   -3.3381,   -3.5698,   -3.7752,   -4.0723,   -4.3773,   -4.6599,   -4.9414,   -4.9077,   -4.9180,   -4.9482,   -5.0897,   -5.1485,   -5.2772,   -6.2167,   -7.1914,   -8.4476,   -9.5210,  999.0000,  999.0000,  999.0000,
 10-AUG-2000 06:53:56.00,    3.9464,    3.4762,    3.3489,    3.3935,    4.0986,    4.5842,    4.3677,    4.3218,    4.7373,    5.1943,    5.7472,    6.2805,  999.0000,  999.0000,  999.0000,  999.0000,    8.7505,    9.2206,  999.0000,  999.0000,  999.0000,  999.0000,   11.4126,   11.4863,   11.2288,   10.5763,  999.0000,  999.0000,  999.0000,    6.6010,    5.4030,    4.1330,    3.5708,    3.3439,    2.8619,  999.0000,  999.0000,    1.0628,    0.2510,   -0.6254,   -1.3149,   -1.9558,   -2.4957,   -3.0141,   -3.1058,   -3.1264,   -3.5324,   -3.9866,   -4.1710,   -4.3320,   -4.4291,   -4.5229,  999.0000,  999.0000,  999.0000,   -5.3425,   -5.2545,   -5.1106,   -5.7731,   -6.4537,   -7.1560,   -7.8257,   -8.3003,   -8.6736,   -8.5685,
 10-AUG-2000 06:59:01.00,    3.6753,    3.6852,  999.0000,  999.0000,    4.5191,    4.6040,    4.0715,    3.8863,  999.0000,  999.0000,    6.1487,    6.9563,    7.8706,    8.5808,    8.9363,    9.2590,  999.0000,  999.0000,   10.0775,   10.5407,   11.2268,   11.5470,   11.4900,   11.1876,   10.3100,   10.7755,   10.2292,    8.4433,  999.0000,  999.0000,    4.1555,    3.5203,    2.9817,    2.8368,    2.6908,    2.5444,    2.2707,    1.9500,    1.0050,   -0.1352,   -0.7028,   -1.1215,   -1.4894,   -1.8466,   -2.2510,   -2.6633,   -2.8651,   -3.0405,   -3.5301,   -4.0468,   -4.0154,   -3.9566,   -4.2128,   -4.4717,   -4.5781,   -4.7079,  999.0000,  999.0000,  999.0000,   -7.3113,   -8.1679,   -8.9405,   -9.1235,   -9.3225,   -9.1799,
 10-AUG-2000 07:06:26.00,    3.5649,    3.1202,    3.6088,    4.0754,    4.4572,    4.7502,    4.7590,    4.9806,    5.7779,    6.4608,  999.0000,  999.0000,  999.0000,  999.0000,  999.0000,  999.0000,    9.3870,    9.7741,  999.0000,  999.0000,   10.8121,   10.5974,  999.0000,  999.0000,  999.0000,  999.0000,  999.0000,  999.0000,  999.0000,    5.6603,    4.6102,    3.5167,    2.9929,    2.7541,    2.7550,    2.8594,    2.3939,    1.7176,    0.6104,   -0.6316,   -1.1075,   -1.3843,   -1.8093,   -2.2656,   -2.8484,   -3.4523,   -3.6424,   -3.7808,   -4.5516,   -5.3769,   -5.4594,   -5.5048,   -5.3003,   -5.0970,   -5.2186,   -5.3444,   -5.5530,   -5.8377,   -7.0022,   -8.1327,   -8.9909,   -9.7274,  999.0000,  999.0000,  999.0000,
 10-AUG-2000 07:13:10.00,  999.0000,    3.7148,    3.7339,    3.8018,    4.0578,    4.2894,    4.4430,    4.7400,    5.4247,    6.0137,  999.0000,  999.0000,    7.1175,    7.5062,  999.0000,  999.0000,  999.0000,  999.0000,  999.0000,  999.0000,   10.4785,   10.6407,  999.0000,  999.0000,   10.0784,    9.8094,    9.3743,    8.7853,    7.5335,    5.7734,    4.5768,    3.6195,    3.0752,    2.7374,    2.4476,    2.1785,    1.9957,    1.8447,    0.9051,   -0.2809,   -0.8663,   -1.2954,   -1.6506,   -1.9900,   -2.4984,   -3.0349,   -3.0420,   -2.9830,   -3.5057,   -4.0785,   -4.3091,   -4.5225,   -4.6297,   -4.7386,   -5.0617,   -5.3657,   -5.2892,   -5.3035,   -6.3687,   -7.4125,   -8.3904,   -9.1787,   -9.0258,   -8.9575,   -9.1965,
 10-AUG-2000 07:19:52.00,    3.9038,    3.8163,    3.8060,    3.7756,    3.6673,    3.7092,    4.2315,    4.7952,  999.0000,  999.0000,    6.8228,    7.3119,  999.0000,  999.0000,  999.0000,  999.0000,    7.8897,    8.3484,    9.2642,    9.8169,    9.9441,   10.2601,   10.7707,   10.6332,  999.0000,  999.0000,  999.0000,  999.0000,  999.0000,    5.3390,    4.4020,    3.3845,    2.7387,    2.2790,    2.0772,    1.9869,    1.8529,    1.7027,    0.7597,   -0.5880,   -1.1925,   -1.5477,   -2.0896,   -2.6435,   -3.1510,   -3.6508,   -3.4833,   -3.2324,   -3.7774,   -4.3909,   -4.6162,   -4.8222,   -4.9905,   -5.1589,   -5.3635,   -5.5784,   -5.9988,   -6.4536,   -7.3062,   -8.0684,  999.0000,  999.0000,  999.0000,  999.0000,  999.0000,
 10-AUG-2000 07:26:35.00,  999.0000,  999.0000,  999.0000,  999.0000,  999.0000,  999.0000,  999.0000,  999.0000,    5.8404,    5.9462,  999.0000,  999.0000,  999.0000,  999.0000,  999.0000,  999.0000,  999.0000,  999.0000,  999.0000,  999.0000,  999.0000,  999.0000,  999.0000,  999.0000,  999.0000,  999.0000,    7.7451,    7.8509,  999.0000,    5.3747,    4.3881,    3.3803,    2.8932,    2.6665,    2.5174,    2.4020,    2.3191,    2.2483,    1.5884,  999.0000,  999.0000,   -0.7514,   -1.1851,   -1.6040,   -2.3961,   -3.2189,   -3.0487,   -2.7557,   -3.0297,   -3.3525,   -3.5788,   -3.8002,   -4.3019,   -4.7995,   -4.7713,   -4.7927,   -5.8049,   -6.8283,   -7.9807,   -9.0354,   -9.3098,   -9.5403,   -9.5073,   -9.4262,  999.0000,
 10-AUG-2000 07:33:17.00,  999.0000,  999.0000,  999.0000,    3.6557,    4.1662,    4.5702,    4.6331,    4.8848,    5.6469,    6.2370,  999.0000,  999.0000,  999.0000,  999.0000,  999.0000,  999.0000,    7.5785,    7.9096,  999.0000,  999.0000,  999.0000,  999.0000,   10.4941,   10.6895,   10.5930,   10.0921,  999.0000,    7.9470,    6.8896,    5.4973,    4.4760,    3.6683,    3.1851,    2.8642,    2.6223,    2.4145,    2.1715,    1.9154,    0.9292,   -0.2852,   -0.7719,   -1.0693,  999.0000,  999.0000,  999.0000,   -2.7698,   -3.1526,   -3.5269,   -3.7851,   -4.0333,   -4.2166,   -4.3967,   -4.7032,   -5.0077,   -5.0607,   -5.1698,   -6.3987,   -7.5852,   -8.2091,   -8.9079,   -9.5230,   -9.8815,   -8.7025,   -7.6665,   -7.3055,
 10-AUG-2000 07:40:00.00,  999.0000,  999.0000,  999.0000,  999.0000,    3.7170,    3.8648,    4.0125,    4.2214,  999.0000,  999.0000,  999.0000,  999.0000,  999.0000,  999.0000,    6.8404,    7.2397,    7.6771,    8.1628,    8.7129,    9.1848,    9.5651,    9.8835,  999.0000,  999.0000,   10.6472,   10.1431,  999.0000,    8.0679,    6.9772,    5.3970,    4.0652,    2.8451,    2.3508,    2.2197,    2.2009,    2.2307,    1.8542,    1.3275,    0.3842,   -0.6893,   -0.8784,   -0.8375,   -1.1275,   -1.4875,   -2.1043,   -2.7639,   -2.7652,   -2.7212,   -2.9393,   -3.1799,   -3.7249,   -4.3318,   -4.6743,   -5.0168,   -5.5783,   -6.1788,   -7.5584,   -8.8569,  999.0000,  999.0000,  999.0000,  999.0000,  999.0000,  999.0000,  999.0000,
 10-AUG-2000 07:46:43.00,    3.2707,    2.7774,    3.1328,    3.3878,    3.2561,    3.2140,    3.4583,    3.8037,  999.0000,  999.0000,    5.6602,    6.1808,  999.0000,  999.0000,  999.0000,  999.0000,  999.0000,  999.0000,    8.4516,    8.9335,  999.0000,  999.0000,   10.9326,   10.6552,  999.0000,  999.0000,    7.2517,    6.1172,  999.0000,    5.1530,    4.3321,    3.5216,    2.9642,    2.5334,    2.3879,    2.3657,    2.2164,    2.0200,    1.1787,    0.1357,   -0.4274,   -0.8658,   -1.2261,   -1.5699,   -2.0832,   -2.6249,  999.0000,  999.0000,  999.0000,  999.0000,  999.0000,   -4.1590,   -4.5622,   -4.9691,   -5.4058,   -5.8954,   -7.4413,   -8.8862,   -9.1603,   -9.4851,  -10.2151,  -10.7216,   -9.8885,   -9.2557,   -9.3463,
 10-AUG-2000 07:53:29.00,  999.0000,  999.0000,  999.0000,    3.6611,    3.7796,    3.9723,    4.4024,    4.8584,  999.0000,  999.0000,    6.4362,    6.7892,    6.7965,    6.9623,  999.0000,  999.0000,  999.0000,  999.0000,  999.0000,  999.0000,   10.0524,   10.4695,   10.8616,   10.5142,  999.0000,  999.0000,  999.0000,    6.8776,    5.9616,    5.0841,    4.3210,    3.6328,    3.0264,    2.4608,    2.1846,    2.0334,    1.8017,    1.5403,    0.6758,   -0.3772,   -0.8162,   -1.0954,   -1.2899,   -1.4665,   -1.8708,   -2.3131,   -2.2321,   -2.0857,   -2.9188,   -3.8363,  999.0000,  999.0000,  999.0000,  999.0000,  999.0000,  999.0000,  999.0000,  999.0000,  999.0000,  999.0000,  999.0000,  999.0000,  999.0000,  -10.3344,   -9.6844,
 10-AUG-2000 08:00:11.00,  999.0000,    3.1292,    3.4218,    3.6382,    3.5622,    3.6075,  999.0000,  999.0000,  999.0000,  999.0000,  999.0000,  999.0000,    6.6438,    7.1356,    7.7280,    8.3060,    8.8619,    9.3020,  999.0000,  999.0000,  999.0000,  999.0000,   10.7308,   10.4143,  999.0000,  999.0000,  999.0000,  999.0000,  999.0000,    5.9539,    5.1195,    4.3451,    3.7045,    3.1308,    2.7162,    2.3703,    2.0408,    1.7175,    0.8941,   -0.0857,   -0.7220,   -1.2691,   -1.6832,   -2.0692,   -2.8567,   -3.7111,   -3.5119,   -3.1810,   -3.4822,   -3.8378,   -3.5361,   -3.2016,   -3.5378,   -3.8950,   -4.8872,   -5.9006,   -7.3360,   -8.7026,   -9.2731,   -9.8440,  -10.4173,  -10.9030,  -10.8639,  -10.6788,   -9.8039,
 10-AUG-2000 08:06:53.00,    3.2196,    2.8992,    3.4083,    3.7755,    3.5970,    3.5711,    4.0334,    4.5368,    5.1512,    5.7118,    6.1477,    6.3978,    6.2764,    6.5033,    7.3358,    8.1060,    8.7819,    9.2865,  999.0000,  999.0000,   10.1160,   10.4141,   10.7345,   10.5360,  999.0000,  999.0000,  999.0000,    8.8299,    7.4517,    5.5199,    4.4537,    3.8192,    3.2458,    2.7031,    2.3980,    2.1956,    1.9773,    1.7532,    0.9352,   -0.0685,   -0.3459,   -0.4345,   -0.5798,   -0.7371,   -1.5274,   -2.4231,   -2.5549,   -2.5913,   -3.0390,   -3.5221,   -3.5440,   -3.5428,   -3.8501,   -4.1735,   -5.1902,   -6.2030,   -7.1008,   -8.0210,   -8.3949,   -8.7658,   -9.1715,   -9.5316,   -9.6187,   -9.5907,   -9.0198,
 10-AUG-2000 08:13:36.00,  999.0000,    2.9367,    3.5453,    3.9636,    3.6506,    3.5041,  999.0000,  999.0000,  999.0000,  999.0000,  999.0000,  999.0000,  999.0000,  999.0000,  999.0000,  999.0000,  999.0000,  999.0000,    8.5248,    8.8127,  999.0000,  999.0000,  999.0000,  999.0000,    9.6758,    9.1979,  999.0000,  999.0000,  999.0000,    5.3395,    4.5460,    3.7979,    3.0723,    2.3581,    1.8418,    1.4110,    1.3696,    1.4722,    0.7094,   -0.5607,   -0.7725,   -0.7456,   -1.0201,   -1.3583,   -2.1471,   -3.0110,   -3.0099,   -2.8285,   -3.3852,   -3.9940,   -4.1299,   -4.2423,   -4.7099,   -5.1952,   -6.4250,   -7.6160,  999.0000,  999.0000,  999.0000,   -9.3211,   -9.5655,   -9.8279,  -10.2990,  -10.5366,   -9.7242,
 10-AUG-2000 08:20:22.00,  999.0000,    2.8438,    3.2008,    3.4982,    3.5670,    3.7567,    4.3331,    4.8846,    5.3688,    5.8522,    6.3335,    6.6406,    6.5996,    6.8189,    7.4904,    7.7562,  999.0000,  999.0000,  999.0000,  999.0000,  999.0000,  999.0000,  999.0000,  999.0000,  999.0000,  999.0000,  999.0000,    8.4728,    6.6682,    4.8530,    3.6606,    2.8267,    2.3074,    1.9408,    1.8789,    1.9482,    1.9963,    2.0367,    1.6917,  999.0000,  999.0000,  999.0000,  999.0000,  999.0000,  999.0000,  999.0000,   -1.1691,   -1.9111,   -2.3644,   -2.8238,   -3.5458,   -4.2808,   -4.5110,   -4.7545,   -6.3182,   -7.8290,   -8.2846,   -8.7519,   -9.3562,   -9.8995,   -9.9548,   -9.9921,  -12.2929,  999.0000,  999.0000,
 10-AUG-2000 08:27:06.00,  999.0000,  999.0000,  999.0000,    3.8738,    3.8651,    3.9178,  999.0000,  999.0000,  999.0000,  999.0000,  999.0000,  999.0000,    5.6638,    5.9797,  999.0000,  999.0000,    7.2744,    7.6583,    7.9787,    8.4412,    9.0703,    9.6936,   10.3110,   10.0959,   10.5214,   10.3964,    9.5359,    7.9920,    6.4875,    4.8858,    3.7374,    2.8496,    2.3049,    1.3738,    1.8507,    1.6505,  999.0000,  999.0000,  999.0000,  999.0000,   -0.7024,   -0.9482,   -1.1413,  999.0000,  999.0000,  999.0000,  999.0000,  999.0000,  999.0000,  999.0000,  999.0000,  999.0000,  999.0000,  999.0000,  999.0000,  999.0000,  999.0000,  999.0000,   -9.3195,  -10.1197,  -10.9199,  999.0000,  999.0000,  999.0000,  999.0000,
 10-AUG-2000 08:33:50.00,    3.3739,    2.9364,  999.0000,  999.0000,    3.0746,    3.3042,    4.1205,    4.8154,  999.0000,  999.0000,  999.0000,  999.0000,  999.0000,  999.0000,  999.0000,  999.0000,    8.1149,    8.5313,    9.0141,    9.4908,    9.9604,   10.3522,   10.6638,   10.3992,  999.0000,  999.0000,  999.0000,    7.0446,    5.9413,    4.6922,    3.6912,    2.8329,    2.2667,    1.8467,    1.6990,    1.6691,    1.6315,    1.6762,    0.7013,   -0.6011,   -0.7541,   -0.6247,   -0.8239,   -1.0926,   -1.4130,   -1.7420,   -1.7380,   -1.6923,   -2.5106,   -3.4035,   -3.8207,   -4.2141,   -4.2231,   -4.2366,   -4.9110,   -5.6278,   -7.1878,   -8.6836,   -9.4361,  -10.1217,  -10.2730,  -10.5216,  -11.3540,  -11.8824,  -10.9753,
 10-AUG-2000 08:40:32.00,    2.6588,    2.5130,    2.6739,    2.8270,    2.9499,    3.2310,    4.0180,    4.7632,    5.3952,    5.9245,  999.0000,  999.0000,  999.0000,  999.0000,    7.3825,    7.4312,  999.0000,  999.0000,  999.0000,  999.0000,  999.0000,  999.0000,  999.0000,  999.0000,  999.0000,  999.0000,  999.0000,    8.1211,    6.6867,    5.2299,    3.9558,    2.7869,    2.1538,    1.7887,    1.6758,    1.6720,    1.2919,    1.0879,  999.0000,   -0.3124,   -0.4028,   -0.3747,   -0.7313,   -1.1694,   -1.6691,   -2.1791,   -2.1466,   -2.0463,   -3.0277,   -4.1022,   -4.5778,   -5.0234,   -5.3164,   -5.6143,   -6.3429,   -7.1587,   -8.6425,  -10.0358,  -10.3815,  -10.6781,  -10.5819,  -10.5258,  -10.7094,  -10.5905,  -10.1392,
 10-AUG-2000 08:47:14.00,    3.2403,    2.9872,  999.0000,  999.0000,    3.3054,    3.5069,  999.0000,  999.0000,    5.0276,    5.4235,  999.0000,  999.0000,    5.8404,    6.0674,  999.0000,  999.0000,  999.0000,  999.0000,    7.9668,    7.9514,  999.0000,  999.0000,  999.0000,  999.0000,    9.4973,    9.1930,    8.5486,    7.6453,    6.4607,    5.0015,    3.9279,    2.9924,    2.4478,    2.0988,    1.8464,    1.6358,    1.3974,    1.1487,    0.7201,    0.2353,    0.0615,   -0.0314,   -0.3187,   -0.6472,   -1.0453,   -1.4550,   -1.8094,   -2.1569,   -3.1394,   -4.1766,   -4.5247,   -4.8383,   -5.3184,   -5.7985,  999.0000,  999.0000,   -8.3222,   -9.3243,  -10.2198,  999.0000,  999.0000,  999.0000,  999.0000,   -9.0431,   -9.1148,
 10-AUG-2000 08:53:57.00,  999.0000,  999.0000,  999.0000,  999.0000,  999.0000,  999.0000,    4.6209,    4.8851,  999.0000,  999.0000,    4.8720,    5.1305,    5.9147,    6.5839,    7.0535,    7.6120,    8.3054,    8.7983,  999.0000,  999.0000,  999.0000,  999.0000,    9.9272,    9.7265,    9.1384,    8.5672,  999.0000,  999.0000,  999.0000,    4.6426,    3.9285,    3.3647,    2.8980,    2.4800,    1.9771,    1.4376,    1.2449,    1.1803,    0.8987,    0.5493,    0.1994,   -0.1507,   -0.5752,   -1.0156,   -1.2066,   -1.3560,   -2.0399,   -2.7905,   -3.5771,   -4.3667,   -4.7967,   -5.2087,   -5.2104,   -5.2119,   -5.6081,   -6.0713,   -7.8684,   -9.5676,  -10.1324,  -10.6440,  -10.7314,  -10.7456,  -10.3224,   -9.9511,   -9.8252,
 10-AUG-2000 09:00:39.00,  999.0000,  999.0000,  999.0000,    2.9598,    2.8471,    3.0077,    4.0420,    4.7953,  999.0000,  999.0000,    4.7755,    4.9505,  999.0000,  999.0000,  999.0000,  999.0000,    7.6399,    7.9032,  999.0000,  999.0000,  999.0000,  999.0000,  999.0000,  999.0000,  999.0000,  999.0000,    6.9816,    8.0323,    6.8931,    5.3481,    3.9893,    2.7355,    2.0139,    1.5752,    1.3252,    1.1568,    0.7801,    0.3264,    0.1575,    0.0776,   -0.0839,   -0.2666,   -0.7607,   -1.3206,   -1.8698,   -2.4172,   -2.8367,   -3.2402,   -3.8911,   -4.5634,   -4.6462,   -4.6995,   -4.6963,   -4.7067,   -5.6517,   -6.5764,   -7.8521,   -9.1007,  -10.0360,  -10.6651,  -10.7346,  -10.7106,  -10.1266,   -9.6456,   -9.6511,
 10-AUG-2000 09:07:22.00,    3.5573,    2.9551,    3.2404,    3.5223,    3.7915,    4.2050,    5.0798,    5.6395,  999.0000,  999.0000,    4.7617,    4.8445,  999.0000,  999.0000,    7.3440,    7.9886,    8.3470,    8.6195,    8.7775,    9.0716,    9.5251,    9.7294,    9.6768,    9.6548,    9.5250,    9.4297,    8.9946,    8.3045,    7.1820,  999.0000,  999.0000,    3.0639,    2.2301,    1.6006,    1.2778,    1.1566,    0.5828,   -0.1334,   -0.2440,   -0.1654,   -0.2921,   -0.4722,   -0.7386,   -1.0234,   -1.5088,   -2.0276,   -2.8487,   -3.7075,   -4.3694,   -5.0143,   -4.7800,   -4.5018,   -4.5789,   -4.6734,  999.0000,  999.0000,  999.0000,  999.0000,  999.0000,   -9.6780,   -9.7968,   -9.8740,   -9.7018,   -9.5019,   -9.1710,
 10-AUG-2000 09:14:52.00,  999.0000,  999.0000,  999.0000,  999.0000,    3.0815,    3.7573,    4.4332,    4.9724,    5.1421,    5.1644,    4.8455,    4.8905,    5.6629,    6.2647,  999.0000,  999.0000,    7.1797,    7.5352,  999.0000,  999.0000,  999.0000,  999.0000,    9.6492,   10.0719,    9.6653,    9.5811,    9.1161,    8.4927,    7.2318,    5.5746,    4.3146,    3.2834,    2.6936,  999.0000,  999.0000,    1.5541,    1.0896,    0.5998,    0.3937,    0.2762,    0.0888,   -0.1167,   -0.4018,   -0.7037,   -1.1614,   -1.6450,   -2.4532,   -3.3020,   -4.2608,   -5.2292,   -5.2131,   -5.1478,   -5.1222,   -5.1116,   -5.9901,   -6.9112,   -8.6805,  -10.3553,  -10.9359,  -11.4690,  -11.6223,  -11.6677,  -11.0669,  -10.5315,  -10.3045,
 10-AUG-2000 09:21:34.00,  999.0000,  999.0000,  999.0000,  999.0000,  999.0000,  999.0000,    4.3478,    4.7659,    5.2369,    5.6212,  999.0000,  999.0000,  999.0000,  999.0000,    6.5379,    6.8140,  999.0000,  999.0000,  999.0000,  999.0000,  999.0000,  999.0000,    9.7326,    9.5423,    9.2784,    9.2884,    8.5432,    6.5755,  999.0000,  999.0000,  999.0000,    3.2386,    2.5539,    2.0454,    1.3777,    0.6412,    0.2491,   -0.0158,   -0.1194,   -0.1727,   -0.1019,    0.0012,   -0.2122,   -0.4927,   -0.7162,   -0.9302,   -1.4650,   -2.0399,   -2.9174,   -3.8210,   -3.9983,   -4.1392,   -4.4433,   -4.9144,   -6.0561,   -7.2899,   -8.7414,  -10.1089,  -10.5039,  -10.8862,  -11.1680,  -11.3165,  -10.6248,  -10.1072,  -10.3557,
 10-AUG-2000 09:28:16.00,  999.0000,  999.0000,  999.0000,  999.0000,  999.0000,  999.0000,  999.0000,  999.0000,  999.0000,  999.0000,  999.0000,  999.0000,  999.0000,  999.0000,  999.0000,  999.0000,    7.5681,    7.9488,    8.5705,    9.1889,    9.8033,   10.0908,   10.0411,    9.9913,  999.0000,   10.4454,    9.1984,  999.0000,  999.0000,    5.2071,    4.0040,    2.9059,    1.9712,    1.1182,    0.4622,   -0.1087,   -0.3731,   -0.5243,   -0.6235,   -0.7065,   -0.7954,   -0.8858,   -1.0917,   -1.3222,   -1.7404,   -2.1900,   -2.5885,   -2.9807,   -3.8952,   -4.8548,   -5.2020,   -5.5187,  999.0000,  999.0000,  999.0000,   -8.1890,   -9.0902,   -9.9508,  -10.3972,  -10.7845,  -10.9574,  -11.0325,  999.0000,  999.0000,  999.0000,
 10-AUG-2000 09:34:58.00,  999.0000,  999.0000,  999.0000,    2.3938,    3.0960,    3.7954,    4.4859,    4.9611,    4.8544,    4.8058,    4.8921,    5.1436,  999.0000,  999.0000,  999.0000,  999.0000,  999.0000,  999.0000,    9.2142,    9.5474,  999.0000,  999.0000,    9.6747,    9.7869,    9.5088,    9.3624,    8.9395,    8.2965,    7.1584,    5.6725,    4.3183,    3.0415,    2.1563,    1.4672,    0.8499,    0.2637,   -0.0538,   -0.2719,   -0.3580,   -0.4898,   -0.5446,   -0.6006,   -0.7187,   -0.8501,   -1.1863,   -1.5567,   -2.0800,   -2.6427,   -3.9906,   -5.4081,   -5.1654,   -4.8397,   -5.7893,   -6.7537,   -7.3762,   -8.0076,   -8.8146,   -9.5830,  999.0000,  999.0000,  999.0000,  -10.6510,  -10.2850,   -9.9737,   -9.9286,
 10-AUG-2000 09:41:42.00,  999.0000,  999.0000,  999.0000,  999.0000,  999.0000,  999.0000,    4.3260,    4.6652,    4.3156,    4.1880,    4.5742,    5.2190,    6.3805,    7.0794,    6.9740,    6.8079,  999.0000,  999.0000,  999.0000,  999.0000,  999.0000,  999.0000,  999.0000,  999.0000,    9.9179,    9.9583,    9.3223,  999.0000,  999.0000,    5.8278,    4.5842,    3.1447,    2.3227,    1.7268,    1.3750,    1.1286,    0.6796,    0.1557,   -0.0546,  999.0000,  999.0000,  999.0000,  999.0000,  999.0000,  999.0000,  999.0000,  999.0000,   -3.1500,   -4.2363,   -5.3539,   -5.1233,   -4.9779,   -6.0738,   -7.1783,   -7.5889,   -8.0210,   -8.8832,   -9.7208,  -10.2738,  -10.7659,  -10.7709,  -10.7928,  999.0000,  999.0000,  999.0000,
 10-AUG-2000 09:48:24.00,  999.0000,    2.1057,    2.2754,    2.5426,    3.1848,    3.7117,  999.0000,  999.0000,  999.0000,  999.0000,    4.5017,    4.9680,    6.0506,    6.8863,  999.0000,  999.0000,  999.0000,  999.0000,  999.0000,  999.0000,    9.7332,    9.7656,  999.0000,  999.0000,  999.0000,  999.0000,    7.9979,    7.6443,  999.0000,  999.0000,  999.0000,    2.2995,    1.4012,    0.5656,    0.0004,   -0.4479,   -0.5555,   -0.5370,   -0.7123,   -0.9482,   -0.8050,   -0.5633,   -0.7717,   -1.0754,   -1.3570,   -1.6351,   -2.4542,   -3.3409,   -4.6108,   -5.9136,  999.0000,  999.0000,  999.0000,  999.0000,  999.0000,  999.0000,  999.0000,  999.0000,  999.0000,  999.0000,  999.0000,  999.0000,  999.0000,  999.0000,  999.0000,
 10-AUG-2000 09:55:09.00,    1.5345,    2.1189,    2.0019,    2.0235,    2.5779,    3.3174,    4.6487,    5.4235,    4.6935,    4.2486,    4.4637,    5.0446,    6.3569,    7.0969,    6.8423,    6.8636,    7.3040,    8.0115,    9.0751,    9.6225,    9.5655,    9.6100,    9.7592,    9.9084,    9.3150,    8.8460,    8.2785,    7.6370,    6.6479,    5.4300,    4.4401,    3.5816,    2.6828,    1.7640,    0.9462,    0.1721,    0.0054,    0.0632,   -0.0126,   -0.1303,   -0.1881,   -0.2302,   -0.4876,   -0.7906,   -1.3381,   -1.9264,   -2.6833,   -3.4614,   -4.0946,   -4.7153,   -5.4621,   -6.2151,   -6.9481,   -7.6834,   -8.6013,   -9.5238,   -9.9764,  -10.4397,  -11.0268,  -11.5236,  -11.2986,  -11.0374,  -10.4353,   -9.9362,   -9.9235,
 10-AUG-2000 10:01:54.00,  999.0000,  999.0000,  999.0000,  999.0000,  999.0000,  999.0000,  999.0000,  999.0000,  999.0000,  999.0000,  999.0000,  999.0000,  999.0000,  999.0000,  999.0000,  999.0000,  999.0000,  999.0000,  999.0000,  999.0000,  999.0000,  999.0000,  999.0000,  999.0000,  999.0000,  999.0000,  999.0000,  999.0000,  999.0000,  999.0000,  999.0000,  999.0000,  999.0000,  999.0000,  999.0000,  999.0000,  999.0000,  999.0000,  999.0000,  999.0000,  999.0000,  999.0000,  999.0000,  999.0000,  999.0000,  999.0000,  999.0000,  999.0000,  999.0000,  999.0000,  999.0000,  999.0000,  999.0000,  999.0000,  999.0000,  999.0000,  999.0000,  999.0000,  999.0000,  999.0000,  999.0000,  999.0000,  999.0000,  999.0000,  999.0000,
 10-AUG-2000 10:05:14.00,    2.3517,    2.7142,    3.2687,    3.7386,  999.0000,  999.0000,  999.0000,  999.0000,    4.4652,    4.5720,    4.5896,    4.7284,  999.0000,  999.0000,  999.0000,  999.0000,  999.0000,  999.0000,  999.0000,  999.0000,  999.0000,  999.0000,  999.0000,  999.0000,    9.2269,    8.8569,    8.1356,    7.1507,    6.3377,    5.6379,    4.7880,    3.8516,    2.8090,    1.7133,    0.7343,   -0.1942,   -0.4397,   -0.5666,   -0.3764,    0.0874,   -0.1282,   -0.4762,   -0.9357,   -1.4187,   -2.4520,   -3.2925,   -3.9257,   -4.5330,   -5.0479,   -5.5547,   -6.2949,   -7.0467,   -7.5595,   -8.0653,  999.0000,  999.0000,  999.0000,  999.0000,  999.0000,  999.0000,  999.0000,  -10.3662,   -9.6237,   -8.9347,   -8.4981,
 10-AUG-2000 10:11:57.00,  999.0000,  999.0000,  999.0000,  999.0000,    2.4469,    2.7121,    3.3880,    3.8429,  999.0000,  999.0000,    3.4150,    3.6727,    4.7303,    5.6133,    6.1926,    6.8370,    7.5802,    8.3923,    9.2964,    9.9432,   10.2884,   10.4349,   10.3764,    9.9774,    9.5933,    9.3045,    8.3489,    6.8929,    6.1652,    5.9168,    5.1084,    3.9776,    2.9745,    2.0351,    1.0489,    0.0425,    0.0036,  999.0000,  999.0000,    1.0114,    0.4917,   -0.2538,   -0.2758,   -0.1447,  999.0000,  999.0000,  999.0000,  999.0000,  999.0000,  999.0000,  999.0000,  999.0000,  999.0000,  999.0000,  999.0000,  999.0000,  999.0000,  999.0000,  999.0000,  999.0000,  999.0000,  999.0000,  999.0000,  999.0000,  999.0000,
 10-AUG-2000 10:18:39.00,  999.0000,  999.0000,  999.0000,  999.0000,  999.0000,  999.0000,  999.0000,  999.0000,  999.0000,  999.0000,  999.0000,  999.0000,    6.5940,    6.9231,    7.3518,    7.8849,  999.0000,  999.0000,    9.9608,   10.3590,  999.0000,  999.0000,   10.5214,   10.1286,    9.2499,    9.0918,    8.4155,    7.4952,    6.6993,    5.9852,    5.0730,    4.0468,    3.1719,    2.3729,    1.2574,    0.0053,   -0.4402,   -0.5874,   -0.6133,   -0.6014,   -0.7444,   -0.9276,   -1.3132,   -1.7415,   -2.4098,   -3.1181,   -3.6847,   -4.2335,   -4.7053,   -5.1705,   -6.1218,   -7.0973,   -7.9525,   -8.7938,  999.0000,  999.0000,  999.0000,  999.0000,  999.0000,  999.0000,  999.0000,   -9.1463,   -8.8891,   -8.7524,   -9.1843,
 10-AUG-2000 10:25:21.00,    2.1950,    2.2522,  999.0000,  999.0000,    4.4378,    5.0445,  999.0000,  999.0000,  999.0000,  999.0000,  999.0000,  999.0000,  999.0000,  999.0000,  999.0000,  999.0000,    7.4316,    8.0423,    9.1775,    9.7924,  999.0000,  999.0000,  999.0000,  999.0000,    9.8192,    9.7495,    9.0942,    8.4390,    7.6639,    6.8100,    5.5669,    4.1001,    2.9882,    2.0539,    1.1004,    0.1387,   -0.0502,    0.0467,   -0.1648,   -0.4727,   -0.2859,    0.0295,   -0.1805,   -0.5845,   -1.3412,   -2.2082,   -2.9618,   -3.7127,   -4.4219,   -5.1275,   -5.6935,   -6.2524,   -7.0570,   -7.8608,   -8.3696,   -8.8477,   -8.7156,   -8.6074,   -8.6055,   -8.7760,   -8.7073,   -8.7910,   -8.5854,   -8.4927,   -8.9334,
 10-AUG-2000 10:32:04.00,    2.5524,    2.2223,    2.3511,    2.6317,  999.0000,  999.0000,    5.2255,    5.8130,  999.0000,  999.0000,    5.3281,    5.5169,    6.4064,    7.1247,  999.0000,  999.0000,  999.0000,  999.0000,    9.2289,    9.2853,  999.0000,  999.0000,  999.0000,  999.0000,  999.0000,    9.0954,    8.6942,    8.2931,    7.4683,    6.3646,    5.1721,    3.9284,    2.8163,    1.7702,    0.8945,    0.0924,   -0.1583,   -0.2052,   -0.4204,   -0.6882,   -0.6564,   -0.5467,  999.0000,  999.0000,  999.0000,   -3.0180,   -3.7881,   -4.5672,   -5.1330,   -5.6804,   -6.3852,   -7.0978,   -8.0440,   -8.9800,   -9.0641,   -9.1580,   -9.4488,   -9.7192,  999.0000,  999.0000,  999.0000,   -9.6728,   -9.3766,   -9.2648,  -10.0242,
 10-AUG-2000 10:38:48.00,  999.0000,  999.0000,  999.0000,    1.1701,    2.1240,    2.8992,  999.0000,  999.0000,    3.5114,    3.8251,  999.0000,  999.0000,  999.0000,  999.0000,    6.6607,    7.2303,    7.8038,    8.4801,    9.2935,    9.8543,   10.1191,   10.2319,   10.1880,   10.1441,  999.0000,    9.3277,    8.9299,    8.5321,    7.6765,    6.5196,    5.3820,    4.2556,    3.2408,    2.2817,    1.6493,    1.1579,    0.7626,    0.4027,    0.1341,   -0.1060,   -0.1756,   -0.2009,   -0.5160,   -0.8924,   -1.9454,   -3.1111,   -3.6171,   -4.0407,   -4.6687,   -5.3144,   -5.6489,   -5.9680,   -7.0765,   -8.1819,   -8.3107,   -8.4284,   -8.3236,   -8.2528,   -8.5749,   -8.8327,   -8.5769,   -8.4116,   -8.6700,   -8.9380,   -9.0088,
 10-AUG-2000 10:45:32.00,  999.0000,  999.0000,  999.0000,    1.7234,    2.5397,    3.2727,    3.7394,    4.2299,  999.0000,  999.0000,  999.0000,  999.0000,    7.0046,    7.2777,    7.0612,    7.0776,    7.4477,    8.0750,    9.0450,   10.0149,  999.0000,  999.0000,  999.0000,  999.0000,  999.0000,    9.6648,    8.8206,    7.9765,    7.0074,    5.9560,    4.7854,    3.5390,    2.4855,    1.5520,    0.7278,   -0.0426,   -0.2102,   -0.1549,   -0.2641,   -0.4246,   -0.3407,   -0.1932,   -0.4821,   -0.8633,   -2.0605,   -3.3937,   -3.9315,   -4.3699,   -5.2877,   -6.2467,   -6.2948,   -6.2975,   -7.1301,   -7.9690,   -8.3707,   -8.7632,   -8.9719,   -9.1798,   -9.3782,   -9.5003,   -9.0136,   -8.7066,  999.0000,  999.0000,  999.0000,
 10-AUG-2000 10:52:14.00,  999.0000,   -1.3947,    0.1487,    1.6211,    2.8207,    3.8256,  999.0000,  999.0000,  999.0000,  999.0000,  999.0000,  999.0000,    6.5009,    6.9362,  999.0000,  999.0000,  999.0000,  999.0000,    9.5744,    9.9641,   10.1923,   10.4205,  999.0000,  999.0000,  999.0000,    9.3279,    8.8435,    8.4242,    7.5647,    6.4982,    5.4590,  999.0000,  999.0000,    2.2529,    1.3177,    0.4556,    0.1885,    0.1412,    0.2004,    0.2928,    0.3592,    0.4189,   -0.2566,   -1.0875,   -2.2497,   -3.4671,   -4.1639,   -4.7956,   -5.7565,   -6.7458,   -6.9052,   -7.0231,   -7.5706,   -8.1200,   -8.3580,   -8.6007,   -8.9347,   -9.2511,   -9.3626,   -9.3971,   -8.8162,   -8.3524,   -8.5900,   -9.0132,  -10.3865,
 10-AUG-2000 10:58:58.00,  999.0000,    2.0763,    2.1934,    2.4103,  999.0000,  999.0000,    4.2141,    4.7147,  999.0000,  999.0000,    5.3993,    5.6241,    5.8421,    6.1266,  999.0000,  999.0000,    7.3270,    8.0410,    9.1733,   10.3056,  999.0000,  999.0000,  999.0000,  999.0000,  999.0000,  999.0000,  999.0000,    8.7576,    7.7383,    6.7189,    5.8119,    5.0474,    3.8403,    2.3088,    1.4401,    0.8132,    0.4132,    0.0973,    0.3423,    0.7628,    0.6020,    0.2901,   -0.3493,   -1.0579,   -1.9450,   -2.8619,   -3.8410,   -4.8280,   -5.8697,   -6.9162,   -7.3215,   -7.6948,   -8.0279,   -8.3517,   -8.1401,   -7.9660,   -8.5379,   -9.0965,   -9.5012,   -9.7842,   -9.0953,   -8.5168,   -8.6008,   -8.8109,  999.0000,
 10-AUG-2000 11:05:40.00,  999.0000,  999.0000,  999.0000,    1.8531,    2.4471,    3.0228,  999.0000,  999.0000,  999.0000,  999.0000,    5.6097,    5.9831,  999.0000,  999.0000,    6.2399,    6.6155,    7.4319,    8.2770,    9.1606,    9.6784,    9.7676,    9.7967,  999.0000,  999.0000,    9.6980,    9.1313,    8.1379,    8.1578,    7.3242,    6.4780,    5.2753,    3.3692,    1.3665,    1.0840,    0.6639,    0.6620,    0.4080,    0.0609,    0.1145,    0.2932,    0.1736,   -0.0235,   -0.7697,   -1.6320,   -2.2571,   -2.8426,   -3.7796,   -4.7606,   -5.5179,   -6.3183,   -6.7928,   -7.2031,   -7.5240,   -7.8371,   -7.8195,   -7.8248,   -8.2861,   -8.6908,   -8.4399,   -8.1870,   -7.9183,   -7.7053,   -7.8260,   -8.0754,  999.0000,
 10-AUG-2000 11:12:25.00,  999.0000,  999.0000,  999.0000,  999.0000,  999.0000,  999.0000,  999.0000,  999.0000,  999.0000,  999.0000,    5.9444,    6.2016,  999.0000,  999.0000,    6.1446,    6.5048,    7.4411,    8.2789,    8.9855,    9.4940,    9.7705,    9.8691,    9.7842,    9.4178,  999.0000,    9.6007,    8.9137,    8.2086,    7.3531,    6.3474,    5.1614,    3.8527,    2.6300,    1.4503,    1.0539,    1.0521,    0.6586,    0.1810,    0.1228,    0.1957,   -0.1485,   -0.6011,   -1.2673,   -1.9786,   -2.6273,   -3.2654,   -4.2463,   -5.2699,  999.0000,  999.0000,  999.0000,   -7.2106,   -7.3853,   -7.5612,   -8.0232,   -8.4690,   -8.5893,   -8.7100,   -8.8355,   -8.9124,   -8.4611,   -8.1908,   -8.5467,   -9.1763,  -10.2660,
 10-AUG-2000 11:19:10.00,  999.0000,  999.0000,  999.0000,    1.4065,    2.6266,    3.7916,    4.7805,    5.3734,    4.8950,    4.6854,  999.0000,  999.0000,    5.9231,    6.2058,    6.2628,    6.6486,    7.5337,    8.5091,    9.6048,   10.2508,  999.0000,  999.0000,   10.6085,   10.2420,    9.4345,    8.6270,  999.0000,    8.3214,    7.4071,  999.0000,  999.0000,  999.0000,  999.0000,  999.0000,  999.0000,    1.2931,    0.8651,    0.5560,    0.3020,    0.0653,   -0.1722,   -0.4100,   -1.2901,   -2.3062,   -2.7951,   -3.1962,   -4.0155,   -4.8871,   -6.2637,   -7.6838,   -7.7907,   -7.8320,   -7.7642,   -7.7028,   -8.1339,   -8.5541,   -8.7562,   -8.9592,   -9.1710,   -9.3655,  999.0000,  999.0000,  999.0000,   -9.8302,  -10.2681,
 10-AUG-2000 11:25:52.00,  999.0000,    2.5210,    2.1669,    1.9790,    2.4296,    2.9607,    3.7492,    4.3965,  999.0000,  999.0000,    5.1931,    5.5169,    5.9572,    6.4850,  999.0000,  999.0000,  999.0000,  999.0000,    9.8839,   10.1516,    9.9365,    9.8101,  999.0000,  999.0000,    9.7047,    9.6696,  999.0000,    8.3558,    7.1874,    5.9934,    4.8703,    3.7121,    2.4370,    1.0880,    0.7359,    0.8380,    0.7256,    0.5340,    0.3537,    0.1769,    0.3532,    0.6214,   -0.4295,   -1.7593,   -2.3822,   -2.8873,   -3.5618,   -4.2574,   -5.6405,   -7.0830,   -7.5272,   -7.9216,   -7.4945,   -7.0635,   -7.2071,   -7.3636,   -7.7976,   -8.2405,   -8.5417,   -8.6816,   -8.3118,   -8.0397,   -8.3529,   -8.7800,   -9.7444,
 10-AUG-2000 11:32:35.00,  999.0000,  999.0000,  999.0000,  999.0000,  999.0000,  999.0000,    4.3155,    4.5514,  999.0000,  999.0000,    6.9411,    7.4974,    7.5734,    7.3962,    6.7789,    6.8440,    7.9456,    8.7139,  999.0000,  999.0000,  999.0000,  999.0000,   10.3353,   10.6595,  999.0000,    9.8987,    9.4555,    9.0122,    8.2139,    7.1821,    5.8840,  999.0000,  999.0000,    1.4960,    1.0563,    1.0624,    1.0495,    1.0295,    0.8156,    0.5409,    0.3017,    0.0716,   -0.8752,   -1.9737,   -2.6155,   -3.1812,   -4.1394,   -5.1467,   -6.5935,   -7.9265,   -8.1260,   -8.2690,   -7.7947,   -7.3201,   -7.4415,   -7.5615,  999.0000,  999.0000,  999.0000,   -7.9112,   -7.9102,   -7.9750,   -8.4437,   -8.8278,   -8.9839,
 10-AUG-2000 11:39:17.00,  999.0000,  999.0000,  999.0000,    2.1959,    3.2229,    4.1774,    4.9000,    5.1978,    4.3464,    3.9683,  999.0000,  999.0000,    6.1210,    6.7398,  999.0000,  999.0000,  999.0000,  999.0000,    8.9757,    9.4228,  999.0000,  999.0000,  999.0000,  999.0000,  999.0000,    9.3509,    8.9608,    8.6712,    7.7833,    6.3631,    5.1196,    3.8975,    2.6354,    1.3534,    0.7628,    0.4709,    0.5832,    0.8448,    0.7172,    0.4680,    0.1323,   -0.2260,   -0.7807,   -1.3770,   -2.3405,   -3.3651,   -3.9482,   -4.4761,  999.0000,  999.0000,  999.0000,  999.0000,  999.0000,  999.0000,  999.0000,  999.0000,  999.0000,  999.0000,  999.0000,   -8.1286,   -7.9886,   -7.9351,  999.0000,  999.0000,  999.0000,
 10-AUG-2000 11:46:00.00,  999.0000,    2.8861,    2.5292,    2.3346,  999.0000,  999.0000,    3.6227,    3.7888,    3.2431,    3.2602,    4.5798,    5.4491,    5.4183,    5.4512,    5.5946,    5.8511,  999.0000,  999.0000,  999.0000,  999.0000,  999.0000,  999.0000,  999.0000,  999.0000,    9.7062,    9.7806,    8.6755,  999.0000,  999.0000,    5.3770,    4.2301,    3.0532,    2.3727,    1.9406,    1.5344,    1.1394,    1.0214,    1.0057,    0.6799,    0.2572,   -0.2372,   -0.7503,   -1.4216,   -2.1263,   -2.9522,   -3.7982,   -4.7086,   -5.6270,   -6.0374,   -6.4039,   -6.1969,   -5.9613,   -6.3508,   -6.7502,   -7.1418,   -7.5290,   -7.8295,   -8.1034,   -8.0679,   -8.0499,   -8.1716,   -8.2987,   -8.4916,   -8.7087,   -9.4353,
 10-AUG-2000 11:52:43.00,    4.2566,    3.9475,    4.7214,    5.3428,  999.0000,  999.0000,  999.0000,  999.0000,  999.0000,  999.0000,  999.0000,  999.0000,  999.0000,  999.0000,    5.7317,    5.9575,    6.4724,    6.9874,  999.0000,  999.0000,  999.0000,  999.0000,  999.0000,  999.0000,  999.0000,    9.5352,    8.7503,    7.9653,    7.2258,    6.5163,    5.4381,    4.1479,    3.4452,    3.0365,    2.3401,    1.5193,    1.2507,    1.1861,    0.7056,    0.0949,   -0.4793,   -1.0440,   -1.3059,   -1.5036,   -2.5614,   -3.7625,   -4.7949,   -5.8063,   -6.6788,   -7.5394,   -7.4261,   -7.2641,   -7.2496,   -7.2416,   -7.4895,   -7.7434,   -8.1185,   -8.4334,   -8.0505,   -7.7235,   -7.6708,   -7.7943,  999.0000,  999.0000,  999.0000,
 10-AUG-2000 11:59:25.00,  999.0000,    3.0426,    3.0206,    2.9526,  999.0000,  999.0000,    2.2175,    2.0967,    2.3117,    2.8728,    4.2348,    5.2245,    5.4703,    5.5761,    5.4386,    5.6925,    6.5410,    7.4353,    8.3906,    9.0622,    9.4016,    9.7410,  999.0000,  999.0000,  999.0000,  999.0000,  999.0000,  999.0000,  999.0000,  999.0000,  999.0000,  999.0000,  999.0000,  999.0000,  999.0000,  999.0000,  999.0000,  999.0000,  999.0000,  999.0000,  999.0000,  999.0000,  999.0000,  999.0000,  999.0000,  999.0000,  999.0000,  999.0000,  999.0000,  999.0000,  999.0000,  999.0000,  999.0000,  999.0000,  999.0000,  999.0000,  999.0000,  999.0000,  999.0000,  999.0000,  999.0000,  999.0000,  999.0000,  999.0000,  999.0000,
